Observation data for Tarzan on 11/07/2019      Previous  Date       Current Mesonet Observations  Soil Data  Daily Summary Page  Observations in Plain Language
KTA1 070600Z 06011KT 14/14 A3014 RMK A01 T01440144  RH  100%=      5-min Rain = 0.01
KTA1 070601Z 05010KT 14/14 A3014 RMK A01 T01440144  RH  100%=      5-min Rain = 0
KTA1 070602Z 05008KT 14/14 A3014 RMK A01 T01440144  RH  100%=      5-min Rain = 0
KTA1 070603Z 05009KT 14/14 A3014 RMK A01 T01440144  RH  100%=      5-min Rain = 0
KTA1 070604Z 05010KT 14/15 A3014 RMK A01 T01440145  RH  100%=      5-min Rain = 0
KTA1 070605Z 05010KT 15/15 A3014 RMK A01 T01450145  RH  100%=      5-min Rain = 0
KTA1 070606Z 05009KT 14/15 A3014 RMK A01 T01440145  RH  100%=      5-min Rain = 0
KTA1 070607Z 04008KT 14/14 A3014 RMK A01 T01440144  RH  100%=      5-min Rain = 0.01
KTA1 070608Z 05009KT 14/15 A3014 RMK A01 T01440145  RH  100%=      5-min Rain = 0
KTA1 070609Z 05009KT 15/15 A3014 RMK A01 T01450145  RH  100%=      5-min Rain = 0
KTA1 070610Z 06010KT 15/15 A3014 RMK A01 T01450145  RH  100%=      5-min Rain = 0
KTA1 070611Z 06012KT 14/15 A3014 RMK A01 T01440145  RH  100%=      5-min Rain = 0
KTA1 070612Z 06011KT 14/15 A3014 RMK A01 T01440145  RH  100%=      5-min Rain = 0
KTA1 070613Z 06012KT 15/15 A3014 RMK A01 T01450145  RH  100%=      5-min Rain = 0
KTA1 070614Z 06014KT 15/15 A3014 RMK A01 T01450145  RH  100%=      5-min Rain = 0
KTA1 070615Z 06011KT 14/14 A3014 RMK A01 T01440144  RH  100%=      5-min Rain = 0
KTA1 070616Z 06012KT 14/15 A3014 RMK A01 T01440145  RH  100%=      5-min Rain = 0
KTA1 070617Z 06012KT 15/15 A3014 RMK A01 T01450145  RH  100%=      5-min Rain = 0
KTA1 070618Z 06012KT 14/14 A3014 RMK A01 T01440144  RH  100%=      5-min Rain = 0
KTA1 070619Z 06012KT 15/15 A3014 RMK A01 T01450145  RH  100%=      5-min Rain = 0
KTA1 070620Z 06011KT 15/15 A3014 RMK A01 T01450145  RH  100%=      5-min Rain = 0
KTA1 070621Z 05012KT 15/15 A3014 RMK A01 T01450145  RH  100%=      5-min Rain = 0
KTA1 070622Z 05010KT 15/15 A3014 RMK A01 T01450145  RH  100%=      5-min Rain = 0
KTA1 070623Z 06011KT 15/15 A3014 RMK A01 T01450145  RH  100%=      5-min Rain = 0
KTA1 070624Z 05013KT 15/15 A3014 RMK A01 T01450145  RH  100%=      5-min Rain = 0
KTA1 070625Z 05011KT 15/15 A3014 RMK A01 T01450145  RH  100%=      5-min Rain = 0
KTA1 070626Z 05010KT 15/15 A3014 RMK A01 T01450145  RH  100%=      5-min Rain = 0
KTA1 070627Z 05010KT 15/15 A3015 RMK A01 T01450145  RH  100%=      5-min Rain = 0
KTA1 070628Z 04010KT 15/15 A3015 RMK A01 T01450145  RH  100%=      5-min Rain = 0
KTA1 070629Z 04009KT 15/15 A3015 RMK A01 T01450145  RH  100%=      5-min Rain = 0
KTA1 070630Z 04009KT 15/15 A3015 RMK A01 T01450145  RH  100%=      5-min Rain = 0
KTA1 070631Z 04009KT 15/15 A3015 RMK A01 T01460145  RH  100%=      5-min Rain = 0
KTA1 070632Z 04008KT 15/15 A3015 RMK A01 T01450145  RH  100%=      5-min Rain = 0
KTA1 070633Z 04010KT 15/15 A3015 RMK A01 T01450145  RH  100%=      5-min Rain = 0
KTA1 070634Z 04011KT 15/15 A3015 RMK A01 T01450145  RH  100%=      5-min Rain = 0
KTA1 070635Z 04009KT 15/15 A3015 RMK A01 T01450145  RH  100%=      5-min Rain = 0
KTA1 070636Z 04008KT 15/15 A3015 RMK A01 T01450145  RH  100%=      5-min Rain = 0
KTA1 070637Z 04008KT 15/15 A3015 RMK A01 T01460145  RH  100%=      5-min Rain = 0
KTA1 070638Z 04008KT 15/15 A3015 RMK A01 T01460145  RH  100%=      5-min Rain = 0
KTA1 070639Z 06007KT 15/15 A3015 RMK A01 T01450145  RH  100%=      5-min Rain = 0
KTA1 070640Z 05009KT 15/15 A3015 RMK A01 T01450145  RH  100%=      5-min Rain = 0
KTA1 070641Z 05008KT 15/15 A3014 RMK A01 T01460145  RH  100%=      5-min Rain = 0
KTA1 070642Z 04009KT 15/15 A3014 RMK A01 T01450145  RH  100%=      5-min Rain = 0
KTA1 070643Z 05012KT 15/15 A3014 RMK A01 T01450145  RH  100%=      5-min Rain = 0
KTA1 070644Z 05012KT 15/15 A3013 RMK A01 T01450145  RH  100%=      5-min Rain = 0
KTA1 070645Z 05011KT 15/15 A3013 RMK A01 T01460145  RH  100%=      5-min Rain = 0
KTA1 070646Z 05009KT 15/15 A3014 RMK A01 T01450145  RH  100%=      5-min Rain = 0
KTA1 070647Z 05009KT 15/15 A3014 RMK A01 T01450145  RH  100%=      5-min Rain = 0
KTA1 070648Z 05009KT 15/15 A3014 RMK A01 T01450145  RH  100%=      5-min Rain = 0
KTA1 070649Z 05009KT 15/15 A3014 RMK A01 T01450145  RH  100%=      5-min Rain = 0
KTA1 070650Z 05013KT 15/15 A3014 RMK A01 T01450145  RH  100%=      5-min Rain = 0
KTA1 070651Z 05012KT 15/15 A3013 RMK A01 T01460146  RH  100%=      5-min Rain = 0
KTA1 070652Z 06011KT 15/15 A3013 RMK A01 T01450145  RH  100%=      5-min Rain = 0
KTA1 070653Z 05010KT 15/15 A3013 RMK A01 T01450145  RH  100%=      5-min Rain = 0
KTA1 070654Z 06011KT 15/15 A3013 RMK A01 T01450145  RH  100%=      5-min Rain = 0
KTA1 070655Z 05010KT 15/15 A3013 RMK A01 T01460146  RH  100%=      5-min Rain = 0
KTA1 070656Z 05011KT 15/15 A3013 RMK A01 T01450145  RH  100%=      5-min Rain = 0
KTA1 070657Z 06012KT 15/15 A3013 RMK A01 T01450145  RH  100%=      5-min Rain = 0
KTA1 070658Z 06012KT 15/15 A3013 RMK A01 T01450145  RH  100%=      5-min Rain = 0
KTA1 070659Z 05012KT 15/15 A3013 RMK A01 T01450145  RH  100%=      5-min Rain = 0
KTA1 070700Z 06011KT 15/15 A3013 RMK A01 T01450145  RH  100%=      5-min Rain = 0
KTA1 070701Z 06011KT 15/15 A3013 RMK A01 T01450145  RH  100%=      5-min Rain = 0
KTA1 070702Z 05011KT 15/15 A3013 RMK A01 T01450145  RH  100%=      5-min Rain = 0
KTA1 070703Z 06009KT 15/15 A3013 RMK A01 T01450145  RH  100%=      5-min Rain = 0
KTA1 070704Z 06010KT 15/15 A3013 RMK A01 T01450145  RH  100%=      5-min Rain = 0
KTA1 070705Z 06011KT 15/15 A3013 RMK A01 T01450145  RH  100%=      5-min Rain = 0
KTA1 070706Z 06010KT 15/15 A3013 RMK A01 T01450145  RH  100%=      5-min Rain = 0
KTA1 070707Z 06010KT 15/15 A3013 RMK A01 T01450145  RH  100%=      5-min Rain = 0
KTA1 070708Z 07008KT 15/15 A3013 RMK A01 T01450145  RH  100%=      5-min Rain = 0
KTA1 070709Z 06009KT 15/15 A3013 RMK A01 T01450145  RH  100%=      5-min Rain = 0
KTA1 070710Z 06010KT 15/15 A3013 RMK A01 T01450145  RH  100%=      5-min Rain = 0
KTA1 070711Z 06010KT 15/15 A3013 RMK A01 T01450145  RH  100%=      5-min Rain = 0
KTA1 070712Z 06013KT 15/15 A3013 RMK A01 T01450145  RH  100%=      5-min Rain = 0
KTA1 070713Z 06013KT 15/15 A3013 RMK A01 T01450145  RH  100%=      5-min Rain = 0
KTA1 070714Z 06011KT 15/15 A3013 RMK A01 T01450145  RH  100%=      5-min Rain = 0
KTA1 070715Z 06008KT 14/14 A3013 RMK A01 T01440144  RH  100%=      5-min Rain = 0
KTA1 070716Z 06011KT 14/14 A3013 RMK A01 T01440144  RH  100%=      5-min Rain = 0
KTA1 070717Z 06011KT 15/14 A3013 RMK A01 T01450144  RH  100%=      5-min Rain = 0
KTA1 070718Z 07010G15KT 14/14 A3013 RMK A01 T01440144  RH  100%=      5-min Rain = 0
KTA1 070719Z 07009KT 14/14 A3013 RMK A01 T01440144  RH  100%=      5-min Rain = 0
KTA1 070720Z 06009KT 15/14 A3013 RMK A01 T01450144  RH  100%=      5-min Rain = 0
KTA1 070721Z 06010KT 14/14 A3013 RMK A01 T01440144  RH  100%=      5-min Rain = 0
KTA1 070722Z 06010KT 14/14 A3013 RMK A01 T01440144  RH  100%=      5-min Rain = 0
KTA1 070723Z 06009KT 14/14 A3013 RMK A01 T01440144  RH  100%=      5-min Rain = 0
KTA1 070724Z 06011KT 14/15 A3013 RMK A01 T01440145  RH  100%=      5-min Rain = 0
KTA1 070725Z 06009KT 14/15 A3013 RMK A01 T01440145  RH  100%=      5-min Rain = 0
KTA1 070726Z 06008KT 14/15 A3013 RMK A01 T01440145  RH  100%=      5-min Rain = 0
KTA1 070727Z 06008KT 14/14 A3013 RMK A01 T01440144  RH  100%=      5-min Rain = 0
KTA1 070728Z 07009KT 15/15 A3013 RMK A01 T01450145  RH  100%=      5-min Rain = 0.01
KTA1 070729Z 07008KT 15/15 A3013 RMK A01 T01450145  RH  100%=      5-min Rain = 0
KTA1 070730Z 07007KT 15/15 A3013 RMK A01 T01450145  RH  100%=      5-min Rain = 0
KTA1 070731Z 06010KT 15/15 A3013 RMK A01 T01450145  RH  100%=      5-min Rain = 0
KTA1 070732Z 06010KT 15/15 A3013 RMK A01 T01450145  RH  100%=      5-min Rain = 0
KTA1 070733Z 06009KT 15/15 A3013 RMK A01 T01450145  RH  100%=      5-min Rain = 0
KTA1 070734Z 06011KT 15/15 A3013 RMK A01 T01450145  RH  100%=      5-min Rain = 0
KTA1 070735Z 06012KT 15/15 A3013 RMK A01 T01450145  RH  100%=      5-min Rain = 0
KTA1 070736Z 05009KT 15/15 A3013 RMK A01 T01450145  RH  100%=      5-min Rain = 0
KTA1 070737Z 05010KT 15/15 A3013 RMK A01 T01450145  RH  100%=      5-min Rain = 0
KTA1 070738Z 05008KT 15/15 A3013 RMK A01 T01450145  RH  100%=      5-min Rain = 0
KTA1 070739Z 05010KT 15/15 A3014 RMK A01 T01450145  RH  100%=      5-min Rain = 0
KTA1 070740Z 05009KT 15/15 A3014 RMK A01 T01450145  RH  100%=      5-min Rain = 0
KTA1 070741Z 06008KT 15/15 A3013 RMK A01 T01450145  RH  100%=      5-min Rain = 0
KTA1 070742Z 06008KT 15/15 A3013 RMK A01 T01450145  RH  100%=      5-min Rain = 0
KTA1 070743Z 06009KT 15/15 A3013 RMK A01 T01450145  RH  100%=      5-min Rain = 0
KTA1 070744Z 06008KT 15/15 A3013 RMK A01 T01450145  RH  100%=      5-min Rain = 0
KTA1 070745Z 06010KT 15/15 A3013 RMK A01 T01450145  RH  100%=      5-min Rain = 0
KTA1 070746Z 06011KT 15/15 A3013 RMK A01 T01450145  RH  100%=      5-min Rain = 0
KTA1 070747Z 07009KT 14/15 A3013 RMK A01 T01440145  RH  100%=      5-min Rain = 0
KTA1 070748Z 07009KT 14/14 A3013 RMK A01 T01440144  RH  100%=      5-min Rain = 0
KTA1 070749Z 07009KT 14/14 A3013 RMK A01 T01440144  RH  100%=      5-min Rain = 0.01
KTA1 070750Z 07010KT 15/15 A3013 RMK A01 T01450145  RH  100%=      5-min Rain = 0
KTA1 070751Z 07008KT 15/15 A3013 RMK A01 T01450145  RH  100%=      5-min Rain = 0
KTA1 070752Z 07009KT 14/15 A3013 RMK A01 T01440145  RH  100%=      5-min Rain = 0
KTA1 070753Z 08008KT 14/15 A3013 RMK A01 T01440145  RH  100%=      5-min Rain = 0
KTA1 070754Z 07009KT 14/14 A3013 RMK A01 T01440144  RH  100%=      5-min Rain = 0
KTA1 070755Z 08007KT 15/15 A3013 RMK A01 T01450145  RH  100%=      5-min Rain = 0
KTA1 070756Z 08009KT 15/15 A3013 RMK A01 T01450145  RH  100%=      5-min Rain = 0.01
KTA1 070757Z 08010KT 15/15 A3013 RMK A01 T01450145  RH  100%=      5-min Rain = 0
KTA1 070758Z 08008KT 15/15 A3013 RMK A01 T01450145  RH  100%=      5-min Rain = 0
KTA1 070759Z 09008KT 14/14 A3013 RMK A01 T01440144  RH  100%=      5-min Rain = 0
KTA1 070800Z 09008KT 15/15 A3013 RMK A01 T01450145  RH  100%=      5-min Rain = 0
KTA1 070801Z 09009KT 15/15 A3013 RMK A01 T01450145  RH  100%=      5-min Rain = 0
KTA1 070802Z 09010KT 14/15 A3013 RMK A01 T01440145  RH  100%=      5-min Rain = 0
KTA1 070803Z 09010KT 14/15 A3013 RMK A01 T01440145  RH  100%=      5-min Rain = 0
KTA1 070804Z 09009KT 14/15 A3013 RMK A01 T01440145  RH  100%=      5-min Rain = 0
KTA1 070805Z 09009KT 14/15 A3013 RMK A01 T01440145  RH  100%=      5-min Rain = 0
KTA1 070806Z 09009KT 14/15 A3013 RMK A01 T01440145  RH  100%=      5-min Rain = 0
KTA1 070807Z 09009KT 14/15 A3013 RMK A01 T01440145  RH  100%=      5-min Rain = 0
KTA1 070808Z 09010KT 15/15 A3013 RMK A01 T01450145  RH  100%=      5-min Rain = 0
KTA1 070809Z 09009KT 15/15 A3012 RMK A01 T01450145  RH  100%=      5-min Rain = 0
KTA1 070810Z 09010KT 14/14 A3012 RMK A01 T01440144  RH  100%=      5-min Rain = 0
KTA1 070811Z 09009KT 14/14 A3012 RMK A01 T01440144  RH  100%=      5-min Rain = 0
KTA1 070812Z 09011KT 14/14 A3012 RMK A01 T01440144  RH  100%=      5-min Rain = 0
KTA1 070813Z 09011KT 14/14 A3012 RMK A01 T01440144  RH  100%=      5-min Rain = 0
KTA1 070814Z 10011KT 14/14 A3012 RMK A01 T01440144  RH  100%=      5-min Rain = 0
KTA1 070815Z 10012KT 14/14 A3012 RMK A01 T01440144  RH  100%=      5-min Rain = 0
KTA1 070816Z 10010KT 14/14 A3012 RMK A01 T01440144  RH  100%=      5-min Rain = 0
KTA1 070817Z 10009KT 14/14 A3012 RMK A01 T01440144  RH  100%=      5-min Rain = 0
KTA1 070818Z 09010KT 14/14 A3012 RMK A01 T01440144  RH  100%=      5-min Rain = 0
KTA1 070819Z 10010KT 14/14 A3012 RMK A01 T01430144  RH  100%=      5-min Rain = 0
KTA1 070820Z 10011KT 14/14 A3012 RMK A01 T01440144  RH  100%=      5-min Rain = 0
KTA1 070821Z 10009KT 14/14 A3013 RMK A01 T01430144  RH  100%=      5-min Rain = 0
KTA1 070822Z 10008KT 14/14 A3013 RMK A01 T01440144  RH  100%=      5-min Rain = 0
KTA1 070823Z 09009KT 14/14 A3013 RMK A01 T01440144  RH  100%=      5-min Rain = 0
KTA1 070824Z 09007KT 14/14 A3013 RMK A01 T01440144  RH  100%=      5-min Rain = 0
KTA1 070825Z 09009KT 14/14 A3013 RMK A01 T01440144  RH  100%=      5-min Rain = 0
KTA1 070826Z 09008KT 14/14 A3013 RMK A01 T01440144  RH  100%=      5-min Rain = 0
KTA1 070827Z 09009KT 14/14 A3013 RMK A01 T01440144  RH  100%=      5-min Rain = 0
KTA1 070828Z 09008KT 14/14 A3013 RMK A01 T01440144  RH  100%=      5-min Rain = 0
KTA1 070829Z 09009KT 14/14 A3013 RMK A01 T01440144  RH  100%=      5-min Rain = 0
KTA1 070830Z 09009KT 14/15 A3013 RMK A01 T01440145  RH  100%=      5-min Rain = 0
KTA1 070831Z 09009KT 14/15 A3013 RMK A01 T01440145  RH  100%=      5-min Rain = 0
KTA1 070832Z 09009KT 14/14 A3013 RMK A01 T01440144  RH  100%=      5-min Rain = 0
KTA1 070833Z 09007KT 15/15 A3013 RMK A01 T01450145  RH  100%=      5-min Rain = 0
KTA1 070834Z 09010KT 15/15 A3013 RMK A01 T01450145  RH  100%=      5-min Rain = 0
KTA1 070835Z 09008KT 15/15 A3013 RMK A01 T01450145  RH  100%=      5-min Rain = 0
KTA1 070836Z 08007KT 15/15 A3013 RMK A01 T01450145  RH  100%=      5-min Rain = 0
KTA1 070837Z 09009KT 15/15 A3013 RMK A01 T01450145  RH  100%=      5-min Rain = 0
KTA1 070838Z 09009KT 15/15 A3013 RMK A01 T01450145  RH  100%=      5-min Rain = 0
KTA1 070839Z 08008KT 15/15 A3013 RMK A01 T01450145  RH  100%=      5-min Rain = 0
KTA1 070840Z 08009KT 15/15 A3013 RMK A01 T01450145  RH  100%=      5-min Rain = 0
KTA1 070841Z 08009KT 15/15 A3013 RMK A01 T01450145  RH  100%=      5-min Rain = 0
KTA1 070842Z 08010KT 15/15 A3013 RMK A01 T01450145  RH  100%=      5-min Rain = 0
KTA1 070843Z 08010KT 15/15 A3013 RMK A01 T01450145  RH  100%=      5-min Rain = 0
KTA1 070844Z 08008KT 15/15 A3013 RMK A01 T01450145  RH  100%=      5-min Rain = 0
KTA1 070845Z 08009KT 15/15 A3013 RMK A01 T01450145  RH  100%=      5-min Rain = 0
KTA1 070846Z 08007KT 15/15 A3013 RMK A01 T01450145  RH  100%=      5-min Rain = 0
KTA1 070847Z 09009KT 15/15 A3013 RMK A01 T01450145  RH  100%=      5-min Rain = 0
KTA1 070848Z 08008KT 15/15 A3013 RMK A01 T01450145  RH  100%=      5-min Rain = 0
KTA1 070849Z 08008KT 15/15 A3013 RMK A01 T01450145  RH  100%=      5-min Rain = 0
KTA1 070850Z 08008KT 15/15 A3012 RMK A01 T01450145  RH  100%=      5-min Rain = 0.01
KTA1 070851Z 08008KT 15/15 A3012 RMK A01 T01450145  RH  100%=      5-min Rain = 0
KTA1 070852Z 08009KT 15/15 A3012 RMK A01 T01450145  RH  100%=      5-min Rain = 0
KTA1 070853Z 08009KT 15/15 A3012 RMK A01 T01450145  RH  100%=      5-min Rain = 0
KTA1 070854Z 08009KT 15/15 A3012 RMK A01 T01450145  RH  100%=      5-min Rain = 0
KTA1 070855Z 08009KT 15/15 A3012 RMK A01 T01450145  RH  100%=      5-min Rain = 0
KTA1 070856Z 08009KT 15/15 A3012 RMK A01 T01450145  RH  100%=      5-min Rain = 0
KTA1 070857Z 08008KT 15/15 A3012 RMK A01 T01450145  RH  100%=      5-min Rain = 0
KTA1 070858Z 08008KT 15/15 A3012 RMK A01 T01450145  RH  100%=      5-min Rain = 0
KTA1 070859Z 08009KT 15/15 A3012 RMK A01 T01450145  RH  100%=      5-min Rain = 0
KTA1 070900Z 08008KT 15/15 A3012 RMK A01 T01450145  RH  100%=      5-min Rain = 0
KTA1 070901Z 08007KT 15/15 A3012 RMK A01 T01450145  RH  100%=      5-min Rain = 0
KTA1 070902Z 08008KT 15/15 A3012 RMK A01 T01450145  RH  100%=      5-min Rain = 0
KTA1 070903Z 08008KT 15/15 A3012 RMK A01 T01450145  RH  100%=      5-min Rain = 0
KTA1 070904Z 08008KT 15/15 A3012 RMK A01 T01450145  RH  100%=      5-min Rain = 0
KTA1 070905Z 08006KT 15/15 A3012 RMK A01 T01450145  RH  100%=      5-min Rain = 0
KTA1 070906Z 08007KT 15/15 A3012 RMK A01 T01450145  RH  100%=      5-min Rain = 0
KTA1 070907Z 08007KT 15/15 A3012 RMK A01 T01450145  RH  100%=      5-min Rain = 0
KTA1 070908Z 08009KT 15/15 A3012 RMK A01 T01450145  RH  100%=      5-min Rain = 0
KTA1 070909Z 08008KT 15/15 A3012 RMK A01 T01450145  RH  100%=      5-min Rain = 0
KTA1 070910Z 08010KT 15/15 A3012 RMK A01 T01450145  RH  100%=      5-min Rain = 0
KTA1 070911Z 08011KT 15/15 A3012 RMK A01 T01450145  RH  100%=      5-min Rain = 0
KTA1 070912Z 08008KT 14/15 A3012 RMK A01 T01440145  RH  100%=      5-min Rain = 0
KTA1 070913Z 08009KT 15/15 A3012 RMK A01 T01450145  RH  100%=      5-min Rain = 0
KTA1 070914Z 08008KT 14/15 A3012 RMK A01 T01440145  RH  100%=      5-min Rain = 0
KTA1 070915Z 08008KT 14/15 A3012 RMK A01 T01440145  RH  100%=      5-min Rain = 0
KTA1 070916Z 09008KT 14/15 A3012 RMK A01 T01440145  RH  100%=      5-min Rain = 0
KTA1 070917Z 08005KT 15/15 A3012 RMK A01 T01450145  RH  100%=      5-min Rain = 0
KTA1 070918Z 08006KT 15/15 A3012 RMK A01 T01450145  RH  100%=      5-min Rain = 0
KTA1 070919Z 08007KT 14/15 A3012 RMK A01 T01440145  RH  100%=      5-min Rain = 0
KTA1 070920Z 08008KT 14/15 A3012 RMK A01 T01440145  RH  100%=      5-min Rain = 0
KTA1 070921Z 08006KT 15/15 A3012 RMK A01 T01450145  RH  100%=      5-min Rain = 0
KTA1 070922Z 07006KT 15/15 A3012 RMK A01 T01450145  RH  100%=      5-min Rain = 0
KTA1 070923Z 08006KT 14/15 A3013 RMK A01 T01440145  RH  100%=      5-min Rain = 0
KTA1 070924Z 09007KT 15/15 A3013 RMK A01 T01450145  RH  100%=      5-min Rain = 0
KTA1 070925Z 08007KT 15/15 A3013 RMK A01 T01450145  RH  100%=      5-min Rain = 0
KTA1 070926Z 08006KT 15/15 A3013 RMK A01 T01450145  RH  100%=      5-min Rain = 0
KTA1 070927Z 08006KT 14/14 A3013 RMK A01 T01440144  RH  100%=      5-min Rain = 0
KTA1 070928Z 08006KT 14/14 A3013 RMK A01 T01440144  RH  100%=      5-min Rain = 0
KTA1 070929Z 08006KT 15/15 A3013 RMK A01 T01450145  RH  100%=      5-min Rain = 0
KTA1 070930Z 08007KT 14/15 A3013 RMK A01 T01440145  RH  100%=      5-min Rain = 0
KTA1 070931Z 08006KT 14/15 A3013 RMK A01 T01440145  RH  100%=      5-min Rain = 0
KTA1 070932Z 08006KT 14/14 A3013 RMK A01 T01440144  RH  100%=      5-min Rain = 0
KTA1 070933Z 08005KT 14/15 A3013 RMK A01 T01440145  RH  100%=      5-min Rain = 0
KTA1 070934Z 08006KT 14/14 A3013 RMK A01 T01440144  RH  100%=      5-min Rain = 0
KTA1 070935Z 08005KT 14/15 A3013 RMK A01 T01440145  RH  100%=      5-min Rain = 0
KTA1 070936Z 08005KT 15/15 A3013 RMK A01 T01450145  RH  100%=      5-min Rain = 0
KTA1 070937Z 08006KT 15/15 A3013 RMK A01 T01450145  RH  100%=      5-min Rain = 0
KTA1 070938Z 08008KT 15/15 A3013 RMK A01 T01450145  RH  100%=      5-min Rain = 0
KTA1 070939Z 08008KT 15/15 A3013 RMK A01 T01450145  RH  100%=      5-min Rain = 0
KTA1 070940Z 08007KT 15/15 A3013 RMK A01 T01450145  RH  100%=      5-min Rain = 0
KTA1 070941Z 08008KT 15/15 A3013 RMK A01 T01450145  RH  100%=      5-min Rain = 0
KTA1 070942Z 08007KT 15/15 A3013 RMK A01 T01450145  RH  100%=      5-min Rain = 0
KTA1 070943Z 07007KT 15/15 A3013 RMK A01 T01450145  RH  100%=      5-min Rain = 0
KTA1 070944Z 08006KT 15/15 A3013 RMK A01 T01450145  RH  100%=      5-min Rain = 0
KTA1 070945Z 07005KT 15/15 A3013 RMK A01 T01450145  RH  100%=      5-min Rain = 0
KTA1 070946Z 07006KT 15/15 A3013 RMK A01 T01450145  RH  100%=      5-min Rain = 0
KTA1 070947Z 07006KT 15/15 A3013 RMK A01 T01450145  RH  100%=      5-min Rain = 0
KTA1 070948Z 08007KT 15/15 A3013 RMK A01 T01450145  RH  100%=      5-min Rain = 0
KTA1 070949Z 08007KT 15/15 A3013 RMK A01 T01450145  RH  100%=      5-min Rain = 0
KTA1 070950Z 07006KT 15/15 A3013 RMK A01 T01450145  RH  100%=      5-min Rain = 0
KTA1 070951Z 07006KT 15/15 A3013 RMK A01 T01450145  RH  100%=      5-min Rain = 0
KTA1 070952Z 08007KT 15/15 A3013 RMK A01 T01450145  RH  100%=      5-min Rain = 0
KTA1 070953Z 07005KT 15/15 A3013 RMK A01 T01450145  RH  100%=      5-min Rain = 0
KTA1 070954Z 08008KT 15/15 A3013 RMK A01 T01450145  RH  100%=      5-min Rain = 0
KTA1 070955Z 08007KT 15/15 A3013 RMK A01 T01450145  RH  100%=      5-min Rain = 0
KTA1 070956Z 07006KT 15/15 A3013 RMK A01 T01450145  RH  100%=      5-min Rain = 0
KTA1 070957Z 07007KT 15/15 A3013 RMK A01 T01450145  RH  100%=      5-min Rain = 0
KTA1 070958Z 08009KT 15/15 A3013 RMK A01 T01450145  RH  100%=      5-min Rain = 0
KTA1 070959Z 07010KT 15/15 A3013 RMK A01 T01450145  RH  100%=      5-min Rain = 0
KTA1 071000Z 07010KT 15/15 A3013 RMK A01 T01450145  RH  100%=      5-min Rain = 0
KTA1 071001Z 07012KT 15/15 A3013 RMK A01 T01450145  RH  100%=      5-min Rain = 0
KTA1 071002Z 07010KT 15/15 A3013 RMK A01 T01450145  RH  100%=      5-min Rain = 0
KTA1 071003Z 07011KT 15/15 A3013 RMK A01 T01450145  RH  100%=      5-min Rain = 0
KTA1 071004Z 07014KT 15/15 A3013 RMK A01 T01450145  RH  100%=      5-min Rain = 0
KTA1 071005Z 06012KT 15/15 A3014 RMK A01 T01450145  RH  100%=      5-min Rain = 0
KTA1 071006Z 06015KT 15/15 A3014 RMK A01 T01450145  RH  100%=      5-min Rain = 0
KTA1 071007Z 06013KT 15/15 A3014 RMK A01 T01450145  RH  100%=      5-min Rain = 0
KTA1 071008Z 06012KT 15/15 A3014 RMK A01 T01450145  RH  100%=      5-min Rain = 0
KTA1 071009Z 05011KT 15/15 A3014 RMK A01 T01450145  RH  100%=      5-min Rain = 0
KTA1 071010Z 06010KT 15/15 A3014 RMK A01 T01450145  RH  100%=      5-min Rain = 0
KTA1 071011Z 06010KT 15/15 A3015 RMK A01 T01450145  RH  100%=      5-min Rain = 0
KTA1 071012Z 07011KT 15/15 A3015 RMK A01 T01450145  RH  100%=      5-min Rain = 0
KTA1 071013Z 06008KT 15/15 A3015 RMK A01 T01450145  RH  100%=      5-min Rain = 0
KTA1 071014Z 06008KT 15/15 A3015 RMK A01 T01450145  RH  100%=      5-min Rain = 0
KTA1 071015Z 06008KT 15/15 A3015 RMK A01 T01450145  RH  100%=      5-min Rain = 0
KTA1 071016Z 06008KT 15/15 A3015 RMK A01 T01450145  RH  100%=      5-min Rain = 0
KTA1 071017Z 06006KT 15/15 A3015 RMK A01 T01450145  RH  100%=      5-min Rain = 0
KTA1 071018Z 05005KT 15/15 A3016 RMK A01 T01450145  RH  100%=      5-min Rain = 0
KTA1 071019Z 05007G12KT 15/15 A3016 RMK A01 T01450145  RH  100%=      5-min Rain = 0
KTA1 071020Z 06010KT 15/15 A3016 RMK A01 T01450145  RH  100%=      5-min Rain = 0
KTA1 071021Z 06011KT 15/15 A3016 RMK A01 T01450145  RH  100%=      5-min Rain = 0
KTA1 071022Z 05010KT 15/15 A3016 RMK A01 T01450145  RH  100%=      5-min Rain = 0
KTA1 071023Z 05012KT 15/15 A3016 RMK A01 T01450145  RH  100%=      5-min Rain = 0
KTA1 071024Z 04011KT 15/15 A3016 RMK A01 T01450145  RH  100%=      5-min Rain = 0
KTA1 071025Z 05012KT 15/15 A3016 RMK A01 T01450145  RH  100%=      5-min Rain = 0
KTA1 071026Z 05013KT 15/15 A3017 RMK A01 T01450145  RH  100%=      5-min Rain = 0
KTA1 071027Z 05012KT 15/15 A3017 RMK A01 T01460146  RH  100%=      5-min Rain = 0
KTA1 071028Z 04013KT 15/15 A3017 RMK A01 T01460146  RH  100%=      5-min Rain = 0
KTA1 071029Z 04012KT 15/15 A3017 RMK A01 T01450145  RH  100%=      5-min Rain = 0
KTA1 071030Z 04010KT 15/15 A3017 RMK A01 T01450145  RH  100%=      5-min Rain = 0
KTA1 071031Z 04012KT 15/15 A3017 RMK A01 T01450145  RH  100%=      5-min Rain = 0
KTA1 071032Z 04011KT 15/15 A3017 RMK A01 T01450145  RH  100%=      5-min Rain = 0
KTA1 071033Z 03011KT 15/15 A3018 RMK A01 T01450145  RH  100%=      5-min Rain = 0
KTA1 071034Z 03010KT 15/15 A3018 RMK A01 T01460145  RH  100%=      5-min Rain = 0
KTA1 071035Z 03012KT 15/15 A3018 RMK A01 T01460146  RH  100%=      5-min Rain = 0
KTA1 071036Z 02013KT 15/15 A3018 RMK A01 T01460146  RH  100%=      5-min Rain = 0
KTA1 071037Z 01024KT 14/14 A3019 RMK A01 T01410137  RH  097%=      5-min Rain = 0
KTA1 071038Z 01023KT 12/10 A3019 RMK A01 T01210104  RH  089%=      5-min Rain = 0
KTA1 071039Z 00024G29KT 11/10 A302 RMK A01 T01100096  RH  091%=      5-min Rain = 0
KTA1 071040Z 01018G23KT 10/09 A302 RMK A01 T01040093  RH  093%=      5-min Rain = 0
KTA1 071041Z 01017G24KT 10/09 A302 RMK A01 T01020094  RH  095%=      5-min Rain = 0
KTA1 071042Z 01016G23KT 10/10 A302 RMK A01 T01010095  RH  096%=      5-min Rain = 0
KTA1 071043Z 01019KT 10/09 A302 RMK A01 T00990094  RH  097%=      5-min Rain = 0
KTA1 071044Z 00017KT 10/09 A302 RMK A01 T00970092  RH  097%=      5-min Rain = 0.01
KTA1 071045Z 00017KT 10/09 A3021 RMK A01 T00960092  RH  097%=      5-min Rain = 0
KTA1 071046Z 00019G24KT 09/09 A3021 RMK A01 T00940091  RH  098%=      5-min Rain = 0
KTA1 071047Z 36018KT 09/09 A3021 RMK A01 T00920088  RH  097%=      5-min Rain = 0
KTA1 071048Z 35021KT 09/09 A3021 RMK A01 T00900087  RH  098%=      5-min Rain = 0.01
KTA1 071049Z 36019KT 09/09 A3021 RMK A01 T00890086  RH  098%=      5-min Rain = 0
KTA1 071050Z 36019G25KT 09/09 A3021 RMK A01 T00890086  RH  098%=      5-min Rain = 0.01
KTA1 071051Z 36023KT 09/09 A3021 RMK A01 T00870085  RH  098%=      5-min Rain = 0
KTA1 071052Z 36022KT 09/08 A3021 RMK A01 T00850083  RH  098%=      5-min Rain = 0.01
KTA1 071053Z 36022KT 08/08 A3022 RMK A01 T00840082  RH  098%=      5-min Rain = 0.01
KTA1 071054Z 00023G28KT 08/08 A3022 RMK A01 T00830081  RH  098%=      5-min Rain = 0
KTA1 071055Z 00022KT 08/08 A3022 RMK A01 T00820079  RH  098%=      5-min Rain = 0.01
KTA1 071056Z 36021KT 08/08 A3023 RMK A01 T00800078  RH  098%=      5-min Rain = 0
KTA1 071057Z 36019G25KT 08/08 A3023 RMK A01 T00800078  RH  099%=      5-min Rain = 0.01
KTA1 071058Z 36018G23KT 08/08 A3023 RMK A01 T00790078  RH  099%=      5-min Rain = 0.01
KTA1 071059Z 00017KT 08/08 A3023 RMK A01 T00790078  RH  099%=      5-min Rain = 0
KTA1 071100Z 36018G25KT 08/08 A3023 RMK A01 T00790078  RH  099%=      5-min Rain = 0.01
KTA1 071101Z 36022KT 08/08 A3023 RMK A01 T00770075  RH  099%=      5-min Rain = 0
KTA1 071102Z 00018G24KT 08/07 A3023 RMK A01 T00750073  RH  099%=      5-min Rain = 0
KTA1 071103Z 01021KT 08/07 A3023 RMK A01 T00750073  RH  099%=      5-min Rain = 0
KTA1 071104Z 00019KT 07/07 A3022 RMK A01 T00740073  RH  099%=      5-min Rain = 0.01
KTA1 071105Z 00019G24KT 07/07 A3023 RMK A01 T00740072  RH  099%=      5-min Rain = 0
KTA1 071106Z 00018G23KT 07/07 A3023 RMK A01 T00730072  RH  099%=      5-min Rain = 0
KTA1 071107Z 01019KT 07/07 A3023 RMK A01 T00730071  RH  099%=      5-min Rain = 0
KTA1 071108Z 01021KT 07/07 A3023 RMK A01 T00730071  RH  099%=      5-min Rain = 0
KTA1 071109Z 01021G26KT 07/07 A3023 RMK A01 T00720071  RH  099%=      5-min Rain = 0
KTA1 071110Z 01022G27KT 07/07 A3023 RMK A01 T00720070  RH  099%=      5-min Rain = 0
KTA1 071111Z 01020KT 07/07 A3023 RMK A01 T00710069  RH  099%=      5-min Rain = 0.01
KTA1 071112Z 01019KT 07/07 A3023 RMK A01 T00710069  RH  099%=      5-min Rain = 0
KTA1 071113Z 01019KT 07/07 A3023 RMK A01 T00700068  RH  099%=      5-min Rain = 0
KTA1 071114Z 02017KT 07/07 A3023 RMK A01 T00700069  RH  099%=      5-min Rain = 0
KTA1 071115Z 02018KT 07/07 A3023 RMK A01 T00710069  RH  099%=      5-min Rain = 0
KTA1 071116Z 02018KT 07/07 A3023 RMK A01 T00710069  RH  099%=      5-min Rain = 0
KTA1 071117Z 01020KT 07/07 A3023 RMK A01 T00700069  RH  099%=      5-min Rain = 0.01
KTA1 071118Z 01017KT 07/07 A3024 RMK A01 T00700068  RH  099%=      5-min Rain = 0
KTA1 071119Z 01016KT 07/07 A3024 RMK A01 T00700068  RH  099%=      5-min Rain = 0
KTA1 071120Z 01017G23KT 07/07 A3024 RMK A01 T00690067  RH  099%=      5-min Rain = 0
KTA1 071121Z 01020KT 07/07 A3024 RMK A01 T00680066  RH  098%=      5-min Rain = 0.01
KTA1 071122Z 01020KT 07/06 A3024 RMK A01 T00670064  RH  098%=      5-min Rain = 0
KTA1 071123Z 01018KT 07/06 A3024 RMK A01 T00660063  RH  098%=      5-min Rain = 0
KTA1 071124Z 02020G25KT 07/06 A3024 RMK A01 T00650063  RH  098%=      5-min Rain = 0.01
KTA1 071125Z 02022KT 07/06 A3024 RMK A01 T00650062  RH  098%=      5-min Rain = 0.01
KTA1 071126Z 02017G22KT 06/06 A3024 RMK A01 T00640061  RH  098%=      5-min Rain = 0.01
KTA1 071127Z 01019KT 06/06 A3024 RMK A01 T00640062  RH  099%=      5-min Rain = 0.01
KTA1 071128Z 01020KT 06/06 A3025 RMK A01 T00640062  RH  099%=      5-min Rain = 0.01
KTA1 071129Z 01020G26KT 06/06 A3025 RMK A01 T00640062  RH  099%=      5-min Rain = 0.02
KTA1 071130Z 02020G25KT 06/06 A3025 RMK A01 T00630062  RH  099%=      5-min Rain = 0.01
KTA1 071131Z 01017KT 06/06 A3025 RMK A01 T00630061  RH  099%=      5-min Rain = 0.02
KTA1 071132Z 01016KT 06/06 A3025 RMK A01 T00630062  RH  099%=      5-min Rain = 0.01
KTA1 071133Z 02015KT 06/06 A3025 RMK A01 T00630062  RH  099%=      5-min Rain = 0.01
KTA1 071134Z 02015G21KT 06/06 A3024 RMK A01 T00630063  RH  100%=      5-min Rain = 0
KTA1 071135Z 02019KT 06/06 A3024 RMK A01 T00640063  RH  100%=      5-min Rain = 0.01
KTA1 071136Z 02017KT 06/06 A3024 RMK A01 T00630062  RH  100%=      5-min Rain = 0.01
KTA1 071137Z 01015KT 06/06 A3025 RMK A01 T00630062  RH  100%=      5-min Rain = 0.02
KTA1 071138Z 36018KT 06/06 A3025 RMK A01 T00620062  RH  100%=      5-min Rain = 0.01
KTA1 071139Z 36019KT 06/06 A3026 RMK A01 T00610060  RH  100%=      5-min Rain = 0.01
KTA1 071140Z 36016KT 06/06 A3026 RMK A01 T00600060  RH  100%=      5-min Rain = 0.01
KTA1 071141Z 36016KT 06/06 A3026 RMK A01 T00600060  RH  100%=      5-min Rain = 0.01
KTA1 071142Z 01015KT 06/06 A3026 RMK A01 T00600060  RH  100%=      5-min Rain = 0
KTA1 071143Z 01017KT 06/06 A3026 RMK A01 T00600060  RH  100%=      5-min Rain = 0.01
KTA1 071144Z 01015KT 06/06 A3026 RMK A01 T00590059  RH  100%=      5-min Rain = 0
KTA1 071145Z 01016G21KT 06/06 A3026 RMK A01 T00590059  RH  100%=      5-min Rain = 0
KTA1 071146Z 36020G26KT 06/06 A3026 RMK A01 T00590059  RH  100%=      5-min Rain = 0
KTA1 071147Z 00019KT 06/06 A3027 RMK A01 T00580058  RH  100%=      5-min Rain = 0
KTA1 071148Z 01017KT 06/06 A3027 RMK A01 T00580057  RH  100%=      5-min Rain = 0
KTA1 071149Z 01021KT 06/06 A3027 RMK A01 T00580058  RH  100%=      5-min Rain = 0.01
KTA1 071150Z 01019KT 06/06 A3026 RMK A01 T00580057  RH  100%=      5-min Rain = 0
KTA1 071151Z 01020G25KT 06/06 A3026 RMK A01 T00570056  RH  099%=      5-min Rain = 0
KTA1 071152Z 01017KT 06/06 A3026 RMK A01 T00570056  RH  099%=      5-min Rain = 0
KTA1 071153Z 01016G21KT 06/06 A3026 RMK A01 T00570056  RH  099%=      5-min Rain = 0
KTA1 071154Z 00022KT 06/06 A3026 RMK A01 T00570055  RH  099%=      5-min Rain = 0
KTA1 071155Z 01021KT 06/05 A3026 RMK A01 T00550054  RH  099%=      5-min Rain = 0
KTA1 071156Z 01021KT 06/05 A3026 RMK A01 T00550052  RH  098%=      5-min Rain = 0
KTA1 071157Z 01021KT 05/05 A3026 RMK A01 T00540051  RH  098%=      5-min Rain = 0
KTA1 071158Z 01022KT 05/05 A3026 RMK A01 T00540051  RH  098%=      5-min Rain = 0
KTA1 071159Z 01020KT 05/05 A3026 RMK A01 T00540051  RH  098%=      5-min Rain = 0
KTA1 071200Z 01021KT 05/05 A3026 RMK A01 T00540051  RH  098%=      5-min Rain = 0
KTA1 071201Z 02018G25KT 05/05 A3026 RMK A01 T00540051  RH  098%=      5-min Rain = 0
KTA1 071202Z 02019G24KT 06/05 A3025 RMK A01 T00550052  RH  098%=      5-min Rain = 0
KTA1 071203Z 02021KT 06/05 A3025 RMK A01 T00550051  RH  098%=      5-min Rain = 0
KTA1 071204Z 02022KT 06/05 A3026 RMK A01 T00550051  RH  098%=      5-min Rain = 0
KTA1 071205Z 02018KT 06/05 A3026 RMK A01 T00550051  RH  097%=      5-min Rain = 0
KTA1 071206Z 02017G22KT 06/05 A3026 RMK A01 T00550051  RH  097%=      5-min Rain = 0
KTA1 071207Z 01021KT 06/05 A3026 RMK A01 T00550051  RH  097%=      5-min Rain = 0
KTA1 071208Z 01019G24KT 06/05 A3026 RMK A01 T00550050  RH  097%=      5-min Rain = 0
KTA1 071209Z 01019KT 05/05 A3026 RMK A01 T00540050  RH  097%=      5-min Rain = 0
KTA1 071210Z 01017KT 05/05 A3026 RMK A01 T00540050  RH  097%=      5-min Rain = 0
KTA1 071211Z 02015KT 06/05 A3026 RMK A01 T00550051  RH  097%=      5-min Rain = 0
KTA1 071212Z 02015KT 06/05 A3026 RMK A01 T00550051  RH  098%=      5-min Rain = 0
KTA1 071213Z 02018KT 06/05 A3026 RMK A01 T00550051  RH  098%=      5-min Rain = 0
KTA1 071214Z 01018KT 05/05 A3026 RMK A01 T00540051  RH  098%=      5-min Rain = 0
KTA1 071215Z 01018KT 05/05 A3026 RMK A01 T00540050  RH  098%=      5-min Rain = 0
KTA1 071216Z 01020G26KT 05/05 A3026 RMK A01 T00540050  RH  097%=      5-min Rain = 0
KTA1 071217Z 02017G22KT 05/05 A3026 RMK A01 T00530049  RH  097%=      5-min Rain = 0
KTA1 071218Z 01018KT 05/05 A3026 RMK A01 T00530049  RH  097%=      5-min Rain = 0
KTA1 071219Z 01019KT 05/05 A3026 RMK A01 T00530048  RH  097%=      5-min Rain = 0
KTA1 071220Z 01020KT 05/05 A3026 RMK A01 T00530048  RH  097%=      5-min Rain = 0
KTA1 071221Z 01015KT 05/05 A3027 RMK A01 T00530048  RH  097%=      5-min Rain = 0
KTA1 071222Z 01017G23KT 05/05 A3027 RMK A01 T00530049  RH  097%=      5-min Rain = 0
KTA1 071223Z 01019KT 05/05 A3027 RMK A01 T00530048  RH  097%=      5-min Rain = 0
KTA1 071224Z 01019G24KT 05/05 A3027 RMK A01 T00530048  RH  097%=      5-min Rain = 0
KTA1 071225Z 01018KT 05/05 A3027 RMK A01 T00530048  RH  097%=      5-min Rain = 0
KTA1 071226Z 01018G25KT 05/05 A3027 RMK A01 T00530048  RH  097%=      5-min Rain = 0
KTA1 071227Z 01024KT 05/05 A3027 RMK A01 T00530047  RH  096%=      5-min Rain = 0
KTA1 071228Z 01022G27KT 05/05 A3027 RMK A01 T00520046  RH  096%=      5-min Rain = 0
KTA1 071229Z 01021KT 05/05 A3027 RMK A01 T00520045  RH  095%=      5-min Rain = 0
KTA1 071230Z 01019KT 05/05 A3027 RMK A01 T00520045  RH  095%=      5-min Rain = 0
KTA1 071231Z 01021G26KT 05/05 A3027 RMK A01 T00520045  RH  095%=      5-min Rain = 0
KTA1 071232Z 01021G26KT 05/04 A3028 RMK A01 T00520044  RH  095%=      5-min Rain = 0
KTA1 071233Z 00020KT 05/04 A3028 RMK A01 T00510044  RH  095%=      5-min Rain = 0
KTA1 071234Z 01017KT 05/04 A3028 RMK A01 T00510044  RH  095%=      5-min Rain = 0
KTA1 071235Z 01018KT 05/04 A3028 RMK A01 T00510044  RH  095%=      5-min Rain = 0
KTA1 071236Z 01020KT 05/04 A3028 RMK A01 T00510044  RH  095%=      5-min Rain = 0
KTA1 071237Z 01016G21KT 05/04 A3028 RMK A01 T00520044  RH  095%=      5-min Rain = 0
KTA1 071238Z 01020KT 05/04 A3028 RMK A01 T00520043  RH  094%=      5-min Rain = 0
KTA1 071239Z 01017KT 05/04 A3028 RMK A01 T00520043  RH  094%=      5-min Rain = 0
KTA1 071240Z 01019G24KT 05/04 A3028 RMK A01 T00510042  RH  094%=      5-min Rain = 0
KTA1 071241Z 01015G21KT 05/04 A3028 RMK A01 T00510042  RH  094%=      5-min Rain = 0
KTA1 071242Z 02020G25KT 05/04 A3028 RMK A01 T00510043  RH  094%=      5-min Rain = 0
KTA1 071243Z 01023KT 05/04 A3028 RMK A01 T00510042  RH  094%=      5-min Rain = 0
KTA1 071244Z 02022G28KT 05/04 A3028 RMK A01 T00510040  RH  093%=      5-min Rain = 0
KTA1 071245Z 01020G26KT 05/04 A3029 RMK A01 T00500040  RH  093%=      5-min Rain = 0
KTA1 071246Z 01019KT 05/04 A3029 RMK A01 T00500040  RH  093%=      5-min Rain = 0
KTA1 071247Z 01019KT 05/04 A3029 RMK A01 T00500040  RH  093%=      5-min Rain = 0
KTA1 071248Z 02017G23KT 05/04 A3029 RMK A01 T00500040  RH  094%=      5-min Rain = 0
KTA1 071249Z 01015KT 05/04 A3029 RMK A01 T00500041  RH  094%=      5-min Rain = 0
KTA1 071250Z 01017KT 05/04 A3029 RMK A01 T00500042  RH  094%=      5-min Rain = 0
KTA1 071251Z 02019KT 05/04 A3029 RMK A01 T00500041  RH  094%=      5-min Rain = 0
KTA1 071252Z 01017KT 05/04 A3029 RMK A01 T00500040  RH  094%=      5-min Rain = 0
KTA1 071253Z 01019G24KT 05/04 A3029 RMK A01 T00490040  RH  094%=      5-min Rain = 0
KTA1 071254Z 01017KT 05/04 A3029 RMK A01 T00490040  RH  094%=      5-min Rain = 0
KTA1 071255Z 02016G21KT 05/04 A3029 RMK A01 T00490040  RH  094%=      5-min Rain = 0
KTA1 071256Z 02019G24KT 05/04 A3029 RMK A01 T00490040  RH  094%=      5-min Rain = 0
KTA1 071257Z 01020G26KT 05/04 A3029 RMK A01 T00490040  RH  094%=      5-min Rain = 0
KTA1 071258Z 01015G21KT 05/04 A303 RMK A01 T00490039  RH  093%=      5-min Rain = 0
KTA1 071259Z 02016G22KT 05/04 A303 RMK A01 T00490040  RH  094%=      5-min Rain = 0
KTA1 071300Z 01019G26KT 05/04 A303 RMK A01 T00500040  RH  094%=      5-min Rain = 0
KTA1 071301Z 01016G22KT 05/04 A303 RMK A01 T00500041  RH  094%=      5-min Rain = 0
KTA1 071302Z 01019KT 05/04 A303 RMK A01 T00500040  RH  094%=      5-min Rain = 0
KTA1 071303Z 02017KT 05/04 A303 RMK A01 T00490039  RH  093%=      5-min Rain = 0
KTA1 071304Z 01017KT 05/04 A303 RMK A01 T00490040  RH  093%=      5-min Rain = 0
KTA1 071305Z 01022G27KT 05/04 A303 RMK A01 T00490039  RH  093%=      5-min Rain = 0
KTA1 071306Z 01019KT 05/04 A303 RMK A01 T00480037  RH  093%=      5-min Rain = 0
KTA1 071307Z 01017KT 05/04 A303 RMK A01 T00480038  RH  093%=      5-min Rain = 0
KTA1 071308Z 01020G25KT 05/04 A303 RMK A01 T00480037  RH  093%=      5-min Rain = 0
KTA1 071309Z 01020G25KT 05/04 A303 RMK A01 T00480037  RH  093%=      5-min Rain = 0
KTA1 071310Z 02017KT 05/04 A303 RMK A01 T00470036  RH  093%=      5-min Rain = 0
KTA1 071311Z 02019G24KT 05/04 A303 RMK A01 T00470037  RH  093%=      5-min Rain = 0
KTA1 071312Z 01019G25KT 05/04 A303 RMK A01 T00470037  RH  093%=      5-min Rain = 0
KTA1 071313Z 02021G28KT 05/04 A303 RMK A01 T00470037  RH  093%=      5-min Rain = 0
KTA1 071314Z 01019G26KT 05/04 A3031 RMK A01 T00470036  RH  092%=      5-min Rain = 0
KTA1 071315Z 02020KT 05/04 A3031 RMK A01 T00470036  RH  093%=      5-min Rain = 0
KTA1 071316Z 02020KT 05/04 A303 RMK A01 T00470036  RH  092%=      5-min Rain = 0
KTA1 071317Z 01020KT 05/04 A3031 RMK A01 T00470036  RH  092%=      5-min Rain = 0
KTA1 071318Z 01019KT 05/04 A3031 RMK A01 T00470036  RH  093%=      5-min Rain = 0
KTA1 071319Z 01020G26KT 05/04 A3031 RMK A01 T00470036  RH  093%=      5-min Rain = 0
KTA1 071320Z 01018G24KT 05/04 A3031 RMK A01 T00470036  RH  093%=      5-min Rain = 0
KTA1 071321Z 02018KT 05/04 A3031 RMK A01 T00470036  RH  093%=      5-min Rain = 0
KTA1 071322Z 01015G20KT 05/04 A3031 RMK A01 T00470036  RH  093%=      5-min Rain = 0
KTA1 071323Z 01015KT 05/04 A3031 RMK A01 T00460036  RH  093%=      5-min Rain = 0
KTA1 071324Z 02016KT 05/04 A3031 RMK A01 T00470037  RH  093%=      5-min Rain = 0
KTA1 071325Z 01015KT 05/04 A3031 RMK A01 T00470037  RH  093%=      5-min Rain = 0
KTA1 071326Z 02019KT 05/04 A3031 RMK A01 T00470037  RH  093%=      5-min Rain = 0
KTA1 071327Z 02016G21KT 05/04 A3031 RMK A01 T00470037  RH  093%=      5-min Rain = 0
KTA1 071328Z 02013KT 05/04 A3031 RMK A01 T00470036  RH  093%=      5-min Rain = 0
KTA1 071329Z 02015KT 05/04 A3031 RMK A01 T00470037  RH  094%=      5-min Rain = 0
KTA1 071330Z 02017KT 05/04 A3031 RMK A01 T00470038  RH  094%=      5-min Rain = 0
KTA1 071331Z 02017KT 05/04 A3031 RMK A01 T00470037  RH  094%=      5-min Rain = 0
KTA1 071332Z 02016KT 05/04 A3031 RMK A01 T00470037  RH  093%=      5-min Rain = 0
KTA1 071333Z 02015KT 05/04 A3031 RMK A01 T00460037  RH  093%=      5-min Rain = 0
KTA1 071334Z 03018KT 05/04 A3032 RMK A01 T00470037  RH  094%=      5-min Rain = 0
KTA1 071335Z 03018KT 05/04 A3031 RMK A01 T00460036  RH  093%=      5-min Rain = 0
KTA1 071336Z 03016G23KT 05/04 A3031 RMK A01 T00460035  RH  093%=      5-min Rain = 0
KTA1 071337Z 03018G24KT 05/04 A3031 RMK A01 T00460035  RH  093%=      5-min Rain = 0
KTA1 071338Z 02021G27KT 05/04 A3032 RMK A01 T00460035  RH  092%=      5-min Rain = 0
KTA1 071339Z 03018KT 05/03 A3031 RMK A01 T00460034  RH  092%=      5-min Rain = 0
KTA1 071340Z 03018KT 05/03 A3031 RMK A01 T00460034  RH  092%=      5-min Rain = 0
KTA1 071341Z 03019KT 05/03 A3032 RMK A01 T00450033  RH  092%=      5-min Rain = 0
KTA1 071342Z 02023KT 05/03 A3032 RMK A01 T00450033  RH  092%=      5-min Rain = 0
KTA1 071343Z 02024KT 04/03 A3032 RMK A01 T00440031  RH  091%=      5-min Rain = 0
KTA1 071344Z 02017KT 04/03 A3032 RMK A01 T00440030  RH  091%=      5-min Rain = 0
KTA1 071345Z 02019G24KT 04/03 A3032 RMK A01 T00440031  RH  091%=      5-min Rain = 0
KTA1 071346Z 02019KT 04/03 A3033 RMK A01 T00440031  RH  091%=      5-min Rain = 0
KTA1 071347Z 02018G23KT 04/03 A3033 RMK A01 T00440031  RH  092%=      5-min Rain = 0
KTA1 071348Z 01020G26KT 04/03 A3033 RMK A01 T00440032  RH  092%=      5-min Rain = 0
KTA1 071349Z 01019G24KT 04/03 A3034 RMK A01 T00430031  RH  092%=      5-min Rain = 0
KTA1 071350Z 01020KT 04/03 A3034 RMK A01 T00430030  RH  092%=      5-min Rain = 0
KTA1 071351Z 01018KT 04/03 A3034 RMK A01 T00430030  RH  092%=      5-min Rain = 0
KTA1 071352Z 01019G24KT 04/03 A3035 RMK A01 T00430031  RH  092%=      5-min Rain = 0
KTA1 071353Z 01016KT 04/03 A3035 RMK A01 T00420030  RH  092%=      5-min Rain = 0
KTA1 071354Z 01019KT 04/03 A3035 RMK A01 T00420030  RH  092%=      5-min Rain = 0
KTA1 071355Z 01019KT 04/03 A3035 RMK A01 T00420030  RH  092%=      5-min Rain = 0
KTA1 071356Z 01017KT 04/03 A3035 RMK A01 T00420030  RH  092%=      5-min Rain = 0
KTA1 071357Z 01019KT 04/03 A3035 RMK A01 T00420031  RH  093%=      5-min Rain = 0
KTA1 071358Z 01019KT 04/03 A3035 RMK A01 T00420031  RH  093%=      5-min Rain = 0
KTA1 071359Z 02019KT 04/03 A3035 RMK A01 T00420031  RH  093%=      5-min Rain = 0
KTA1 071400Z 02017KT 04/03 A3035 RMK A01 T00420031  RH  093%=      5-min Rain = 0
KTA1 071401Z 02013KT 04/03 A3035 RMK A01 T00430032  RH  093%=      5-min Rain = 0
KTA1 071402Z 02014G20KT 04/03 A3035 RMK A01 T00430034  RH  094%=      5-min Rain = 0
KTA1 071403Z 02021KT 04/03 A3035 RMK A01 T00430034  RH  093%=      5-min Rain = 0
KTA1 071404Z 03018KT 04/03 A3035 RMK A01 T00430033  RH  093%=      5-min Rain = 0
KTA1 071405Z 03018KT 04/03 A3035 RMK A01 T00430033  RH  093%=      5-min Rain = 0
KTA1 071406Z 02019KT 04/03 A3036 RMK A01 T00430033  RH  093%=      5-min Rain = 0
KTA1 071407Z 03018KT 04/03 A3036 RMK A01 T00430033  RH  093%=      5-min Rain = 0
KTA1 071408Z 02019KT 04/03 A3036 RMK A01 T00430032  RH  093%=      5-min Rain = 0
KTA1 071409Z 03015KT 04/03 A3036 RMK A01 T00430031  RH  092%=      5-min Rain = 0
KTA1 071410Z 03017KT 04/03 A3036 RMK A01 T00430032  RH  093%=      5-min Rain = 0
KTA1 071411Z 02016G21KT 04/03 A3036 RMK A01 T00430032  RH  093%=      5-min Rain = 0
KTA1 071412Z 03013KT 04/03 A3036 RMK A01 T00430032  RH  093%=      5-min Rain = 0
KTA1 071413Z 03016KT 04/03 A3036 RMK A01 T00430033  RH  093%=      5-min Rain = 0
KTA1 071414Z 03016KT 04/03 A3035 RMK A01 T00430032  RH  093%=      5-min Rain = 0
KTA1 071415Z 03015KT 04/03 A3035 RMK A01 T00430032  RH  093%=      5-min Rain = 0
KTA1 071416Z 03017KT 04/03 A3035 RMK A01 T00430033  RH  093%=      5-min Rain = 0
KTA1 071417Z 02017G25KT 04/03 A3035 RMK A01 T00420032  RH  093%=      5-min Rain = 0
KTA1 071418Z 02021G26KT 04/03 A3035 RMK A01 T00410030  RH  092%=      5-min Rain = 0
KTA1 071419Z 03019KT 04/03 A3035 RMK A01 T00410029  RH  092%=      5-min Rain = 0
KTA1 071420Z 03021KT 04/03 A3036 RMK A01 T00410029  RH  092%=      5-min Rain = 0
KTA1 071421Z 02018G23KT 04/03 A3036 RMK A01 T00410028  RH  092%=      5-min Rain = 0
KTA1 071422Z 02018KT 04/03 A3036 RMK A01 T00400028  RH  092%=      5-min Rain = 0
KTA1 071423Z 03018KT 04/03 A3036 RMK A01 T00410029  RH  092%=      5-min Rain = 0
KTA1 071424Z 02020KT 04/03 A3036 RMK A01 T00400028  RH  092%=      5-min Rain = 0
KTA1 071425Z 02017KT 04/03 A3037 RMK A01 T00400027  RH  091%=      5-min Rain = 0
KTA1 071426Z 03016KT 04/03 A3037 RMK A01 T00400028  RH  092%=      5-min Rain = 0
KTA1 071427Z 02017KT 04/03 A3036 RMK A01 T00400028  RH  092%=      5-min Rain = 0
KTA1 071428Z 03018KT 04/03 A3036 RMK A01 T00400028  RH  092%=      5-min Rain = 0
KTA1 071429Z 03019KT 04/03 A3036 RMK A01 T00400028  RH  092%=      5-min Rain = 0
KTA1 071430Z 02016KT 04/03 A3036 RMK A01 T00400028  RH  092%=      5-min Rain = 0
KTA1 071431Z 03015KT 04/03 A3036 RMK A01 T00400029  RH  093%=      5-min Rain = 0
KTA1 071432Z 03015G21KT 04/03 A3036 RMK A01 T00400030  RH  093%=      5-min Rain = 0
KTA1 071433Z 02020KT 04/03 A3036 RMK A01 T00400030  RH  093%=      5-min Rain = 0
KTA1 071434Z 02019KT 04/03 A3037 RMK A01 T00400029  RH  093%=      5-min Rain = 0
KTA1 071435Z 02018KT 04/03 A3037 RMK A01 T00400028  RH  092%=      5-min Rain = 0
KTA1 071436Z 02019KT 04/03 A3037 RMK A01 T00390028  RH  092%=      5-min Rain = 0
KTA1 071437Z 02019KT 04/03 A3037 RMK A01 T00390027  RH  092%=      5-min Rain = 0
KTA1 071438Z 02017KT 04/03 A3038 RMK A01 T00380027  RH  092%=      5-min Rain = 0
KTA1 071439Z 01017G24KT 04/03 A3039 RMK A01 T00380027  RH  092%=      5-min Rain = 0
KTA1 071440Z 01017KT 04/03 A3039 RMK A01 T00380026  RH  092%=      5-min Rain = 0
KTA1 071441Z 36017KT 04/03 A304 RMK A01 T00380026  RH  092%=      5-min Rain = 0
KTA1 071442Z 00015KT 04/03 A3041 RMK A01 T00380026  RH  092%=      5-min Rain = 0
KTA1 071443Z 00012G18KT 04/03 A3042 RMK A01 T00380026  RH  092%=      5-min Rain = 0
KTA1 071444Z 36018KT 04/03 A3042 RMK A01 T00380027  RH  093%=      5-min Rain = 0
KTA1 071445Z 00019G24KT 04/03 A3042 RMK A01 T00380026  RH  092%=      5-min Rain = 0
KTA1 071446Z 01016KT 04/03 A3042 RMK A01 T00370025  RH  092%=      5-min Rain = 0
KTA1 071447Z 01016KT 04/03 A3042 RMK A01 T00370026  RH  092%=      5-min Rain = 0.01
KTA1 071448Z 02018KT 04/03 A3041 RMK A01 T00370027  RH  093%=      5-min Rain = 0
KTA1 071449Z 02019KT 04/03 A304 RMK A01 T00370026  RH  093%=      5-min Rain = 0
KTA1 071450Z 02019KT 04/03 A3039 RMK A01 T00360026  RH  093%=      5-min Rain = 0
KTA1 071451Z 03017KT 04/03 A3039 RMK A01 T00360026  RH  093%=      5-min Rain = 0.01
KTA1 071452Z 03017KT 04/03 A3038 RMK A01 T00360027  RH  094%=      5-min Rain = 0
KTA1 071453Z 03017KT 04/03 A3038 RMK A01 T00360027  RH  094%=      5-min Rain = 0
KTA1 071454Z 03015KT 04/03 A3038 RMK A01 T00360028  RH  094%=      5-min Rain = 0
KTA1 071455Z 03018KT 04/03 A3038 RMK A01 T00360028  RH  095%=      5-min Rain = 0
KTA1 071456Z 03018KT 04/03 A3038 RMK A01 T00360028  RH  095%=      5-min Rain = 0
KTA1 071457Z 03017KT 04/03 A3038 RMK A01 T00350027  RH  095%=      5-min Rain = 0
KTA1 071458Z 04016G21KT 04/03 A3038 RMK A01 T00350027  RH  095%=      5-min Rain = 0
KTA1 071459Z 04017G22KT 04/03 A3038 RMK A01 T00350028  RH  095%=      5-min Rain = 0
KTA1 071500Z 03017KT 04/03 A3037 RMK A01 T00350028  RH  095%=      5-min Rain = 0
KTA1 071501Z 04020KT 04/03 A3038 RMK A01 T00350028  RH  095%=      5-min Rain = 0
KTA1 071502Z 03017G23KT 04/03 A3038 RMK A01 T00350027  RH  095%=      5-min Rain = 0
KTA1 071503Z 03015KT 04/03 A3038 RMK A01 T00350027  RH  095%=      5-min Rain = 0
KTA1 071504Z 02017KT 04/03 A3039 RMK A01 T00350028  RH  095%=      5-min Rain = 0
KTA1 071505Z 03017KT 03/03 A3039 RMK A01 T00340027  RH  095%=      5-min Rain = 0
KTA1 071506Z 03018G23KT 03/03 A3039 RMK A01 T00340027  RH  095%=      5-min Rain = 0.01
KTA1 071507Z 03017KT 03/03 A3039 RMK A01 T00340026  RH  095%=      5-min Rain = 0
KTA1 071508Z 03021G26KT 03/03 A3039 RMK A01 T00340026  RH  094%=      5-min Rain = 0
KTA1 071509Z 02021KT 03/02 A304 RMK A01 T00330024  RH  094%=      5-min Rain = 0
KTA1 071510Z 02017KT 03/02 A304 RMK A01 T00330023  RH  094%=      5-min Rain = 0
KTA1 071511Z 01019KT 03/02 A3041 RMK A01 T00330024  RH  094%=      5-min Rain = 0
KTA1 071512Z 00018KT 03/03 A3041 RMK A01 T00330025  RH  094%=      5-min Rain = 0
KTA1 071513Z 01018KT 03/03 A3041 RMK A01 T00340025  RH  094%=      5-min Rain = 0
KTA1 071514Z 01021KT 03/02 A3041 RMK A01 T00330024  RH  094%=      5-min Rain = 0
KTA1 071515Z 01018KT 03/02 A3041 RMK A01 T00320023  RH  093%=      5-min Rain = 0
KTA1 071516Z 03018KT 03/02 A304 RMK A01 T00320023  RH  094%=      5-min Rain = 0
KTA1 071517Z 03017KT 03/02 A304 RMK A01 T00320023  RH  094%=      5-min Rain = 0
KTA1 071518Z 03017KT 03/02 A3039 RMK A01 T00320024  RH  094%=      5-min Rain = 0
KTA1 071519Z 03019KT 03/02 A3039 RMK A01 T00320023  RH  094%=      5-min Rain = 0
KTA1 071520Z 03018KT 03/02 A3039 RMK A01 T00320023  RH  094%=      5-min Rain = 0
KTA1 071521Z 03015KT 03/02 A3039 RMK A01 T00320024  RH  094%=      5-min Rain = 0
KTA1 071522Z 03014KT 03/03 A3039 RMK A01 T00320025  RH  095%=      5-min Rain = 0
KTA1 071523Z 04019KT 03/03 A3039 RMK A01 T00320025  RH  095%=      5-min Rain = 0
KTA1 071524Z 04020KT 03/02 A3039 RMK A01 T00320024  RH  095%=      5-min Rain = 0
KTA1 071525Z 04021KT 03/02 A3039 RMK A01 T00310022  RH  094%=      5-min Rain = 0
KTA1 071526Z 03019G24KT 03/02 A304 RMK A01 T00300020  RH  093%=      5-min Rain = 0
KTA1 071527Z 03018G23KT 03/02 A304 RMK A01 T00300019  RH  093%=      5-min Rain = 0
KTA1 071528Z 03016G24KT 03/02 A304 RMK A01 T00300019  RH  092%=      5-min Rain = 0
KTA1 071529Z 03016KT 03/02 A3041 RMK A01 T00300018  RH  092%=      5-min Rain = 0
KTA1 071530Z 03013G19KT 03/02 A3042 RMK A01 T00300018  RH  092%=      5-min Rain = 0
KTA1 071531Z 03013KT 03/02 A3042 RMK A01 T00300019  RH  092%=      5-min Rain = 0
KTA1 071532Z 03013KT 03/02 A3042 RMK A01 T00300019  RH  093%=      5-min Rain = 0
KTA1 071533Z 03014G19KT 03/02 A3043 RMK A01 T00300019  RH  092%=      5-min Rain = 0
KTA1 071534Z 03016KT 03/02 A3043 RMK A01 T00290018  RH  092%=      5-min Rain = 0
KTA1 071535Z 02012G18KT 03/02 A3043 RMK A01 T00290017  RH  092%=      5-min Rain = 0
KTA1 071536Z 03014G20KT 03/02 A3043 RMK A01 T00290018  RH  092%=      5-min Rain = 0
KTA1 071537Z 03015KT 03/02 A3043 RMK A01 T00290018  RH  092%=      5-min Rain = 0
KTA1 071538Z 03016KT 03/02 A3042 RMK A01 T00290018  RH  092%=      5-min Rain = 0
KTA1 071539Z 04018KT 03/02 A3042 RMK A01 T00290018  RH  093%=      5-min Rain = 0
KTA1 071540Z 03016KT 03/02 A3042 RMK A01 T00290018  RH  092%=      5-min Rain = 0
KTA1 071541Z 03018KT 03/02 A3042 RMK A01 T00280017  RH  092%=      5-min Rain = 0
KTA1 071542Z 02016KT 03/02 A3042 RMK A01 T00280016  RH  092%=      5-min Rain = 0.01
KTA1 071543Z 02015KT 03/02 A3042 RMK A01 T00280017  RH  093%=      5-min Rain = 0
KTA1 071544Z 02014KT 03/02 A3042 RMK A01 T00280018  RH  093%=      5-min Rain = 0.01
KTA1 071545Z 02016G22KT 03/02 A3042 RMK A01 T00280020  RH  094%=      5-min Rain = 0
KTA1 071546Z 02021KT 03/02 A3042 RMK A01 T00280019  RH  094%=      5-min Rain = 0.01
KTA1 071547Z 03019KT 03/02 A3041 RMK A01 T00260016  RH  093%=      5-min Rain = 0.01
KTA1 071548Z 03016KT 03/02 A3041 RMK A01 T00260016  RH  093%=      5-min Rain = 0
KTA1 071549Z 03020KT 03/02 A3041 RMK A01 T00260017  RH  094%=      5-min Rain = 0
KTA1 071550Z 02019KT 03/02 A3041 RMK A01 T00260017  RH  094%=      5-min Rain = 0.01
KTA1 071551Z 02016KT 03/02 A3041 RMK A01 T00260018  RH  095%=      5-min Rain = 0
KTA1 071552Z 02017KT 03/02 A3041 RMK A01 T00260019  RH  095%=      5-min Rain = 0
KTA1 071553Z 02022KT 03/02 A304 RMK A01 T00260019  RH  095%=      5-min Rain = 0
KTA1 071554Z 02021KT 03/02 A304 RMK A01 T00250018  RH  095%=      5-min Rain = 0
KTA1 071555Z 03022KT 03/02 A304 RMK A01 T00250017  RH  094%=      5-min Rain = 0.01
KTA1 071556Z 03022KT 02/02 A304 RMK A01 T00240015  RH  094%=      5-min Rain = 0
KTA1 071557Z 03022KT 02/02 A304 RMK A01 T00240015  RH  094%=      5-min Rain = 0
KTA1 071558Z 03020G25KT 02/02 A304 RMK A01 T00240015  RH  094%=      5-min Rain = 0
KTA1 071559Z 03019KT 02/02 A304 RMK A01 T00240015  RH  094%=      5-min Rain = 0
KTA1 071600Z 03019KT 03/02 A304 RMK A01 T00250015  RH  094%=      5-min Rain = 0.01
KTA1 071601Z 02015KT 03/02 A304 RMK A01 T00250015  RH  094%=      5-min Rain = 0
KTA1 071602Z 03015G20KT 02/02 A3041 RMK A01 T00240016  RH  094%=      5-min Rain = 0
KTA1 071603Z 03018KT 02/02 A3041 RMK A01 T00240016  RH  094%=      5-min Rain = 0
KTA1 071604Z 02019KT 02/02 A3041 RMK A01 T00240015  RH  094%=      5-min Rain = 0
KTA1 071605Z 02016G22KT 02/02 A3041 RMK A01 T00240015  RH  094%=      5-min Rain = 0.01
KTA1 071606Z 02019G24KT 02/02 A3041 RMK A01 T00240015  RH  094%=      5-min Rain = 0
KTA1 071607Z 02019KT 02/01 A3041 RMK A01 T00240014  RH  094%=      5-min Rain = 0.01
KTA1 071608Z 03017G22KT 02/01 A3041 RMK A01 T00230014  RH  094%=      5-min Rain = 0
KTA1 071609Z 02014G19KT 02/02 A3041 RMK A01 T00240015  RH  094%=      5-min Rain = 0.01
KTA1 071610Z 02018G23KT 02/02 A3041 RMK A01 T00240017  RH  095%=      5-min Rain = 0
KTA1 071611Z 02017G23KT 02/02 A3041 RMK A01 T00240017  RH  095%=      5-min Rain = 0.01
KTA1 071612Z 02018G24KT 02/02 A3041 RMK A01 T00240017  RH  095%=      5-min Rain = 0
KTA1 071613Z 02018KT 02/02 A3041 RMK A01 T00240017  RH  095%=      5-min Rain = 0.01
KTA1 071614Z 02016KT 02/02 A3041 RMK A01 T00240017  RH  095%=      5-min Rain = 0
KTA1 071615Z 02017KT 02/02 A3041 RMK A01 T00230017  RH  095%=      5-min Rain = 0
KTA1 071616Z 03016G22KT 02/02 A304 RMK A01 T00240017  RH  095%=      5-min Rain = 0.01
KTA1 071617Z 03017KT 02/02 A304 RMK A01 T00230017  RH  095%=      5-min Rain = 0
KTA1 071618Z 03017KT 02/02 A304 RMK A01 T00240017  RH  096%=      5-min Rain = 0
KTA1 071619Z 03016KT 02/02 A3039 RMK A01 T00240018  RH  096%=      5-min Rain = 0.01
KTA1 071620Z 03015G20KT 02/02 A3039 RMK A01 T00240018  RH  096%=      5-min Rain = 0.01
KTA1 071621Z 04016KT 02/02 A3039 RMK A01 T00230018  RH  096%=      5-min Rain = 0.01
KTA1 071622Z 03019KT 02/02 A3039 RMK A01 T00240018  RH  096%=      5-min Rain = 0
KTA1 071623Z 03017KT 02/02 A3039 RMK A01 T00230018  RH  096%=      5-min Rain = 0.01
KTA1 071624Z 03017KT 02/02 A3039 RMK A01 T00230018  RH  096%=      5-min Rain = 0
KTA1 071625Z 03016KT 02/02 A3039 RMK A01 T00230018  RH  097%=      5-min Rain = 0.01
KTA1 071626Z 03017KT 02/02 A304 RMK A01 T00230019  RH  097%=      5-min Rain = 0
KTA1 071627Z 03015KT 02/02 A304 RMK A01 T00230019  RH  097%=      5-min Rain = 0.01
KTA1 071628Z 03013KT 02/02 A304 RMK A01 T00230019  RH  097%=      5-min Rain = 0
KTA1 071629Z 03014G19KT 02/02 A304 RMK A01 T00240020  RH  097%=      5-min Rain = 0
KTA1 071630Z 02014G19KT 02/02 A3041 RMK A01 T00240020  RH  097%=      5-min Rain = 0.01
KTA1 071631Z 02015KT 02/02 A3041 RMK A01 T00240020  RH  097%=      5-min Rain = 0
KTA1 071632Z 02014G20KT 02/02 A3041 RMK A01 T00230020  RH  097%=      5-min Rain = 0
KTA1 071633Z 02012KT 02/02 A3041 RMK A01 T00240020  RH  097%=      5-min Rain = 0.01
KTA1 071634Z 02015KT 02/02 A3042 RMK A01 T00240020  RH  097%=      5-min Rain = 0
KTA1 071635Z 02013G18KT 03/02 A3042 RMK A01 T00250021  RH  097%=      5-min Rain = 0
KTA1 071636Z 02015KT 03/02 A3042 RMK A01 T00250020  RH  097%=      5-min Rain = 0
KTA1 071637Z 02015G20KT 03/02 A3042 RMK A01 T00250020  RH  097%=      5-min Rain = 0.01
KTA1 071638Z 02016G21KT 03/02 A3042 RMK A01 T00250019  RH  096%=      5-min Rain = 0
KTA1 071639Z 02016KT 02/02 A3042 RMK A01 T00240018  RH  096%=      5-min Rain = 0
KTA1 071640Z 03016KT 03/02 A3042 RMK A01 T00250018  RH  095%=      5-min Rain = 0
KTA1 071641Z 03013KT 02/02 A3042 RMK A01 T00240017  RH  095%=      5-min Rain = 0.01
KTA1 071642Z 03012KT 02/02 A3042 RMK A01 T00240017  RH  095%=      5-min Rain = 0
KTA1 071643Z 03012KT 03/02 A3042 RMK A01 T00250018  RH  096%=      5-min Rain = 0
KTA1 071644Z 03015KT 03/02 A3042 RMK A01 T00250019  RH  096%=      5-min Rain = 0
KTA1 071645Z 03016KT 03/02 A3041 RMK A01 T00250019  RH  096%=      5-min Rain = 0.01
KTA1 071646Z 04015KT 02/02 A3041 RMK A01 T00240018  RH  096%=      5-min Rain = 0
KTA1 071647Z 03015KT 03/02 A3041 RMK A01 T00250018  RH  096%=      5-min Rain = 0
KTA1 071648Z 03012KT 03/02 A3041 RMK A01 T00250018  RH  096%=      5-min Rain = 0.01
KTA1 071649Z 03014KT 03/02 A3041 RMK A01 T00250019  RH  096%=      5-min Rain = 0
KTA1 071650Z 03014KT 03/02 A304 RMK A01 T00250019  RH  096%=      5-min Rain = 0
KTA1 071651Z 03012KT 03/02 A304 RMK A01 T00250019  RH  096%=      5-min Rain = 0
KTA1 071652Z 04016KT 03/02 A304 RMK A01 T00250020  RH  096%=      5-min Rain = 0.01
KTA1 071653Z 04015KT 03/02 A304 RMK A01 T00250019  RH  096%=      5-min Rain = 0
KTA1 071654Z 04017KT 03/02 A304 RMK A01 T00250019  RH  096%=      5-min Rain = 0
KTA1 071655Z 03015KT 02/02 A304 RMK A01 T00240018  RH  096%=      5-min Rain = 0
KTA1 071656Z 03016KT 02/02 A304 RMK A01 T00240018  RH  095%=      5-min Rain = 0.01
KTA1 071657Z 03017KT 02/02 A304 RMK A01 T00240018  RH  095%=      5-min Rain = 0
KTA1 071658Z 03016KT 03/02 A304 RMK A01 T00250018  RH  095%=      5-min Rain = 0
KTA1 071659Z 03017KT 02/02 A304 RMK A01 T00240018  RH  095%=      5-min Rain = 0.01
KTA1 071700Z 03016G21KT 02/02 A304 RMK A01 T00240018  RH  095%=      5-min Rain = 0
KTA1 071701Z 03014KT 03/02 A304 RMK A01 T00250018  RH  095%=      5-min Rain = 0
KTA1 071702Z 03016KT 03/02 A304 RMK A01 T00250019  RH  096%=      5-min Rain = 0.01
KTA1 071703Z 02012KT 03/02 A304 RMK A01 T00250019  RH  096%=      5-min Rain = 0
KTA1 071704Z 03013KT 03/02 A304 RMK A01 T00250020  RH  096%=      5-min Rain = 0.01
KTA1 071705Z 03014G19KT 03/02 A304 RMK A01 T00250020  RH  096%=      5-min Rain = 0
KTA1 071706Z 03016KT 03/02 A304 RMK A01 T00250020  RH  096%=      5-min Rain = 0
KTA1 071707Z 03015KT 03/02 A304 RMK A01 T00250019  RH  096%=      5-min Rain = 0.01
KTA1 071708Z 03012KT 03/02 A304 RMK A01 T00250019  RH  096%=      5-min Rain = 0
KTA1 071709Z 02015KT 03/02 A3041 RMK A01 T00250020  RH  096%=      5-min Rain = 0
KTA1 071710Z 02013KT 03/02 A3041 RMK A01 T00250020  RH  096%=      5-min Rain = 0
KTA1 071711Z 03014KT 03/02 A3041 RMK A01 T00260021  RH  097%=      5-min Rain = 0
KTA1 071712Z 03014KT 03/02 A3041 RMK A01 T00260021  RH  097%=      5-min Rain = 0.01
KTA1 071713Z 02014KT 03/02 A3041 RMK A01 T00260021  RH  096%=      5-min Rain = 0
KTA1 071714Z 02010KT 03/02 A3042 RMK A01 T00250020  RH  096%=      5-min Rain = 0
KTA1 071715Z 02011G16KT 03/02 A3042 RMK A01 T00260021  RH  097%=      5-min Rain = 0
KTA1 071716Z 01013KT 03/02 A3042 RMK A01 T00260021  RH  097%=      5-min Rain = 0.01
KTA1 071717Z 02012KT 03/02 A3042 RMK A01 T00260021  RH  097%=      5-min Rain = 0
KTA1 071718Z 02012KT 03/02 A3042 RMK A01 T00260021  RH  097%=      5-min Rain = 0
KTA1 071719Z 01012KT 03/02 A3042 RMK A01 T00270022  RH  097%=      5-min Rain = 0
KTA1 071720Z 02014KT 03/02 A3042 RMK A01 T00270022  RH  097%=      5-min Rain = 0
KTA1 071721Z 02012KT 03/02 A3042 RMK A01 T00270022  RH  097%=      5-min Rain = 0
KTA1 071722Z 02014KT 03/02 A3041 RMK A01 T00270021  RH  096%=      5-min Rain = 0
KTA1 071723Z 02015KT 03/02 A3042 RMK A01 T00270021  RH  096%=      5-min Rain = 0
KTA1 071724Z 02011KT 03/02 A3042 RMK A01 T00270021  RH  096%=      5-min Rain = 0
KTA1 071725Z 01012KT 03/02 A3042 RMK A01 T00270022  RH  097%=      5-min Rain = 0
KTA1 071726Z 02011KT 03/02 A3042 RMK A01 T00280023  RH  097%=      5-min Rain = 0
KTA1 071727Z 01012KT 03/02 A3042 RMK A01 T00280023  RH  097%=      5-min Rain = 0
KTA1 071728Z 02009KT 03/02 A3041 RMK A01 T00280023  RH  097%=      5-min Rain = 0
KTA1 071729Z 02012KT 03/02 A3041 RMK A01 T00280023  RH  097%=      5-min Rain = 0
KTA1 071730Z 03013KT 03/02 A3041 RMK A01 T00280023  RH  097%=      5-min Rain = 0
KTA1 071731Z 02015KT 03/02 A3041 RMK A01 T00280023  RH  097%=      5-min Rain = 0
KTA1 071732Z 02014KT 03/02 A3041 RMK A01 T00280022  RH  097%=      5-min Rain = 0
KTA1 071733Z 03016KT 03/02 A3041 RMK A01 T00280023  RH  096%=      5-min Rain = 0
KTA1 071734Z 03015KT 03/02 A3041 RMK A01 T00280022  RH  096%=      5-min Rain = 0
KTA1 071735Z 02015KT 03/02 A304 RMK A01 T00280022  RH  096%=      5-min Rain = 0
KTA1 071736Z 02014KT 03/02 A3041 RMK A01 T00280023  RH  096%=      5-min Rain = 0
KTA1 071737Z 01018KT 03/02 A3041 RMK A01 T00280022  RH  096%=      5-min Rain = 0
KTA1 071738Z 02016KT 03/02 A3041 RMK A01 T00270021  RH  096%=      5-min Rain = 0
KTA1 071739Z 02015KT 03/02 A3041 RMK A01 T00270020  RH  095%=      5-min Rain = 0
KTA1 071740Z 02016KT 03/02 A3041 RMK A01 T00270020  RH  095%=      5-min Rain = 0
KTA1 071741Z 02014KT 03/02 A3041 RMK A01 T00270020  RH  095%=      5-min Rain = 0
KTA1 071742Z 02011KT 03/02 A3041 RMK A01 T00270020  RH  095%=      5-min Rain = 0
KTA1 071743Z 01014KT 03/02 A3041 RMK A01 T00280021  RH  095%=      5-min Rain = 0
KTA1 071744Z 01015KT 03/02 A3041 RMK A01 T00280021  RH  095%=      5-min Rain = 0
KTA1 071745Z 01015KT 03/02 A3041 RMK A01 T00280021  RH  095%=      5-min Rain = 0
KTA1 071746Z 02013G18KT 03/02 A3041 RMK A01 T00280020  RH  095%=      5-min Rain = 0
KTA1 071747Z 02015KT 03/02 A3041 RMK A01 T00280020  RH  095%=      5-min Rain = 0
KTA1 071748Z 02015KT 03/02 A3041 RMK A01 T00280020  RH  095%=      5-min Rain = 0
KTA1 071749Z 02011KT 03/02 A3041 RMK A01 T00280021  RH  095%=      5-min Rain = 0
KTA1 071750Z 02013KT 03/02 A3041 RMK A01 T00290021  RH  095%=      5-min Rain = 0
KTA1 071751Z 02011KT 03/02 A3041 RMK A01 T00290021  RH  095%=      5-min Rain = 0
KTA1 071752Z 01012KT 03/02 A3041 RMK A01 T00290022  RH  095%=      5-min Rain = 0
KTA1 071753Z 02011KT 03/02 A3041 RMK A01 T00290022  RH  095%=      5-min Rain = 0.01
KTA1 071754Z 03014KT 03/02 A3042 RMK A01 T00290022  RH  095%=      5-min Rain = 0
KTA1 071755Z 02014KT 03/02 A3042 RMK A01 T00290022  RH  095%=      5-min Rain = 0
KTA1 071756Z 02013KT 03/02 A3042 RMK A01 T00280021  RH  095%=      5-min Rain = 0
KTA1 071757Z 01016KT 03/02 A3042 RMK A01 T00280022  RH  095%=      5-min Rain = 0
KTA1 071758Z 01018KT 03/02 A3042 RMK A01 T00280020  RH  095%=      5-min Rain = 0
KTA1 071759Z 01015KT 03/02 A3042 RMK A01 T00270019  RH  095%=      5-min Rain = 0
KTA1 071800Z 01011KT 03/02 A3042 RMK A01 T00270019  RH  095%=      5-min Rain = 0
KTA1 071801Z 01012KT 03/02 A3042 RMK A01 T00270020  RH  095%=      5-min Rain = 0
KTA1 071802Z 01015G20KT 03/02 A3042 RMK A01 T00270021  RH  095%=      5-min Rain = 0
KTA1 071803Z 01014KT 03/02 A3042 RMK A01 T00260019  RH  095%=      5-min Rain = 0
KTA1 071804Z 02013KT 03/02 A3042 RMK A01 T00260019  RH  095%=      5-min Rain = 0
KTA1 071805Z 02013KT 03/02 A3042 RMK A01 T00260019  RH  095%=      5-min Rain = 0
KTA1 071806Z 02015KT 03/02 A3042 RMK A01 T00260019  RH  095%=      5-min Rain = 0
KTA1 071807Z 02014KT 03/02 A3041 RMK A01 T00250017  RH  094%=      5-min Rain = 0
KTA1 071808Z 02012KT 03/02 A3042 RMK A01 T00250017  RH  094%=      5-min Rain = 0
KTA1 071809Z 02013KT 03/02 A3042 RMK A01 T00260018  RH  095%=      5-min Rain = 0
KTA1 071810Z 02013KT 03/02 A3042 RMK A01 T00260018  RH  095%=      5-min Rain = 0
KTA1 071811Z 02014KT 03/02 A3042 RMK A01 T00260018  RH  094%=      5-min Rain = 0
KTA1 071812Z 01014KT 03/02 A3042 RMK A01 T00260017  RH  094%=      5-min Rain = 0
KTA1 071813Z 01015KT 03/02 A3042 RMK A01 T00260018  RH  094%=      5-min Rain = 0
KTA1 071814Z 01015KT 03/02 A3042 RMK A01 T00260017  RH  094%=      5-min Rain = 0
KTA1 071815Z 01015KT 03/02 A3042 RMK A01 T00260017  RH  094%=      5-min Rain = 0
KTA1 071816Z 01013KT 03/02 A3042 RMK A01 T00260017  RH  094%=      5-min Rain = 0
KTA1 071817Z 01012G17KT 03/02 A3042 RMK A01 T00260018  RH  094%=      5-min Rain = 0
KTA1 071818Z 02014KT 03/02 A3042 RMK A01 T00260018  RH  094%=      5-min Rain = 0
KTA1 071819Z 02012G17KT 03/02 A3042 RMK A01 T00260018  RH  094%=      5-min Rain = 0
KTA1 071820Z 02014G19KT 03/02 A3042 RMK A01 T00260018  RH  094%=      5-min Rain = 0
KTA1 071821Z 02012KT 03/02 A3041 RMK A01 T00260018  RH  094%=      5-min Rain = 0
KTA1 071822Z 03015G20KT 03/02 A3041 RMK A01 T00260018  RH  094%=      5-min Rain = 0
KTA1 071823Z 03015KT 03/02 A3041 RMK A01 T00260017  RH  094%=      5-min Rain = 0
KTA1 071824Z 02015KT 03/02 A3041 RMK A01 T00260016  RH  094%=      5-min Rain = 0
KTA1 071825Z 02014KT 03/02 A3041 RMK A01 T00260017  RH  094%=      5-min Rain = 0
KTA1 071826Z 02015KT 03/02 A3042 RMK A01 T00260017  RH  094%=      5-min Rain = 0
KTA1 071827Z 02016KT 03/02 A3042 RMK A01 T00260016  RH  093%=      5-min Rain = 0
KTA1 071828Z 02015KT 03/02 A3042 RMK A01 T00260016  RH  093%=      5-min Rain = 0
KTA1 071829Z 02013G18KT 03/02 A3042 RMK A01 T00250016  RH  094%=      5-min Rain = 0
KTA1 071830Z 02011KT 03/02 A3042 RMK A01 T00260017  RH  094%=      5-min Rain = 0
KTA1 071831Z 02013KT 03/02 A3042 RMK A01 T00260018  RH  094%=      5-min Rain = 0
KTA1 071832Z 02014KT 03/02 A3042 RMK A01 T00260017  RH  094%=      5-min Rain = 0
KTA1 071833Z 02011KT 03/02 A3042 RMK A01 T00250017  RH  094%=      5-min Rain = 0
KTA1 071834Z 02013KT 03/02 A3042 RMK A01 T00260017  RH  094%=      5-min Rain = 0
KTA1 071835Z 02011KT 03/02 A3042 RMK A01 T00250017  RH  094%=      5-min Rain = 0
KTA1 071836Z 02012KT 03/02 A3042 RMK A01 T00260018  RH  095%=      5-min Rain = 0
KTA1 071837Z 02014KT 03/02 A3042 RMK A01 T00250018  RH  095%=      5-min Rain = 0
KTA1 071838Z 02014KT 03/02 A3042 RMK A01 T00250017  RH  095%=      5-min Rain = 0
KTA1 071839Z 02013KT 03/02 A3042 RMK A01 T00250017  RH  095%=      5-min Rain = 0
KTA1 071840Z 02012KT 03/02 A3042 RMK A01 T00250017  RH  095%=      5-min Rain = 0
KTA1 071841Z 02011KT 03/02 A3042 RMK A01 T00250017  RH  095%=      5-min Rain = 0
KTA1 071842Z 01011KT 03/02 A3042 RMK A01 T00250019  RH  095%=      5-min Rain = 0
KTA1 071843Z 02013KT 03/02 A3042 RMK A01 T00250019  RH  096%=      5-min Rain = 0
KTA1 071844Z 02011KT 03/02 A3042 RMK A01 T00260020  RH  096%=      5-min Rain = 0
KTA1 071845Z 02012KT 03/02 A3042 RMK A01 T00260020  RH  096%=      5-min Rain = 0
KTA1 071846Z 02010KT 03/02 A3042 RMK A01 T00260020  RH  096%=      5-min Rain = 0
KTA1 071847Z 02013KT 03/02 A3042 RMK A01 T00260020  RH  096%=      5-min Rain = 0
KTA1 071848Z 01010KT 03/02 A3042 RMK A01 T00260020  RH  096%=      5-min Rain = 0
KTA1 071849Z 01009KT 03/02 A3042 RMK A01 T00260021  RH  096%=      5-min Rain = 0
KTA1 071850Z 01011KT 03/02 A3042 RMK A01 T00270022  RH  097%=      5-min Rain = 0
KTA1 071851Z 02011KT 03/02 A3042 RMK A01 T00270023  RH  097%=      5-min Rain = 0
KTA1 071852Z 02009KT 03/02 A3042 RMK A01 T00270022  RH  097%=      5-min Rain = 0
KTA1 071853Z 01011KT 03/02 A3042 RMK A01 T00270022  RH  097%=      5-min Rain = 0.01
KTA1 071854Z 01014KT 03/02 A3042 RMK A01 T00270023  RH  097%=      5-min Rain = 0
KTA1 071855Z 02014KT 03/02 A3042 RMK A01 T00260021  RH  097%=      5-min Rain = 0
KTA1 071856Z 02014KT 03/02 A3042 RMK A01 T00260020  RH  096%=      5-min Rain = 0
KTA1 071857Z 01014KT 03/02 A3042 RMK A01 T00250020  RH  096%=      5-min Rain = 0
KTA1 071858Z 02014KT 03/02 A3042 RMK A01 T00260020  RH  096%=      5-min Rain = 0
KTA1 071859Z 02013KT 03/02 A3042 RMK A01 T00260020  RH  096%=      5-min Rain = 0
KTA1 071900Z 02013KT 03/02 A3042 RMK A01 T00260019  RH  096%=      5-min Rain = 0
KTA1 071901Z 03013KT 03/02 A3041 RMK A01 T00260019  RH  095%=      5-min Rain = 0
KTA1 071902Z 02014KT 03/02 A3041 RMK A01 T00260019  RH  095%=      5-min Rain = 0
KTA1 071903Z 02012KT 03/02 A3041 RMK A01 T00260019  RH  095%=      5-min Rain = 0
KTA1 071904Z 02013G18KT 03/02 A3041 RMK A01 T00260019  RH  095%=      5-min Rain = 0
KTA1 071905Z 01014KT 03/02 A3041 RMK A01 T00260020  RH  096%=      5-min Rain = 0
KTA1 071906Z 01013KT 03/02 A3041 RMK A01 T00260020  RH  096%=      5-min Rain = 0
KTA1 071907Z 01011KT 03/02 A3041 RMK A01 T00260020  RH  096%=      5-min Rain = 0
KTA1 071908Z 01009KT 03/02 A3041 RMK A01 T00270022  RH  097%=      5-min Rain = 0
KTA1 071909Z 01012KT 03/02 A3041 RMK A01 T00270023  RH  097%=      5-min Rain = 0
KTA1 071910Z 01011KT 03/02 A304 RMK A01 T00270022  RH  097%=      5-min Rain = 0
KTA1 071911Z 01009KT 03/02 A3041 RMK A01 T00260022  RH  097%=      5-min Rain = 0
KTA1 071912Z 02010KT 03/02 A3041 RMK A01 T00270023  RH  097%=      5-min Rain = 0
KTA1 071913Z 01012KT 03/02 A3041 RMK A01 T00270023  RH  097%=      5-min Rain = 0
KTA1 071914Z 01012KT 03/02 A304 RMK A01 T00270023  RH  098%=      5-min Rain = 0
KTA1 071915Z 01013KT 03/02 A304 RMK A01 T00270023  RH  098%=      5-min Rain = 0
KTA1 071916Z 01015KT 03/02 A304 RMK A01 T00250022  RH  097%=      5-min Rain = 0
KTA1 071917Z 01013KT 03/02 A304 RMK A01 T00250021  RH  097%=      5-min Rain = 0
KTA1 071918Z 02014KT 03/02 A304 RMK A01 T00250021  RH  098%=      5-min Rain = 0
KTA1 071919Z 02013KT 03/02 A304 RMK A01 T00250022  RH  098%=      5-min Rain = 0
KTA1 071920Z 02010KT 03/02 A304 RMK A01 T00250021  RH  098%=      5-min Rain = 0
KTA1 071921Z 02012KT 03/02 A304 RMK A01 T00250022  RH  098%=      5-min Rain = 0
KTA1 071922Z 02012KT 03/02 A304 RMK A01 T00250021  RH  097%=      5-min Rain = 0
KTA1 071923Z 02013KT 02/02 A304 RMK A01 T00240020  RH  097%=      5-min Rain = 0
KTA1 071924Z 02011KT 02/02 A304 RMK A01 T00240020  RH  097%=      5-min Rain = 0
KTA1 071925Z 01013KT 02/02 A304 RMK A01 T00240020  RH  097%=      5-min Rain = 0
KTA1 071926Z 02013KT 02/02 A3041 RMK A01 T00240020  RH  097%=      5-min Rain = 0
KTA1 071927Z 02014KT 02/02 A3041 RMK A01 T00240020  RH  097%=      5-min Rain = 0
KTA1 071928Z 02013KT 02/02 A3041 RMK A01 T00230019  RH  097%=      5-min Rain = 0
KTA1 071929Z 03013KT 02/02 A304 RMK A01 T00240019  RH  097%=      5-min Rain = 0
KTA1 071930Z 03014KT 02/02 A304 RMK A01 T00230019  RH  097%=      5-min Rain = 0
KTA1 071931Z 03015KT 02/02 A304 RMK A01 T00230019  RH  097%=      5-min Rain = 0
KTA1 071932Z 03013KT 02/02 A304 RMK A01 T00230018  RH  097%=      5-min Rain = 0
KTA1 071933Z 02012KT 02/02 A304 RMK A01 T00230018  RH  097%=      5-min Rain = 0
KTA1 071934Z 03012KT 02/02 A304 RMK A01 T00240019  RH  097%=      5-min Rain = 0
KTA1 071935Z 03012KT 02/02 A304 RMK A01 T00240019  RH  097%=      5-min Rain = 0
KTA1 071936Z 03012KT 02/02 A3039 RMK A01 T00230019  RH  097%=      5-min Rain = 0
KTA1 071937Z 03012KT 02/02 A3039 RMK A01 T00230019  RH  097%=      5-min Rain = 0
KTA1 071938Z 03011KT 02/02 A3039 RMK A01 T00230019  RH  097%=      5-min Rain = 0
KTA1 071939Z 03012KT 02/02 A3039 RMK A01 T00240020  RH  097%=      5-min Rain = 0
KTA1 071940Z 03012KT 02/02 A3039 RMK A01 T00240021  RH  098%=      5-min Rain = 0
KTA1 071941Z 02014KT 02/02 A3039 RMK A01 T00240021  RH  098%=      5-min Rain = 0
KTA1 071942Z 02013KT 02/02 A3039 RMK A01 T00240020  RH  097%=      5-min Rain = 0
KTA1 071943Z 02013KT 02/02 A304 RMK A01 T00240020  RH  097%=      5-min Rain = 0
KTA1 071944Z 01012KT 02/02 A304 RMK A01 T00240020  RH  097%=      5-min Rain = 0
KTA1 071945Z 01013KT 02/02 A304 RMK A01 T00240020  RH  097%=      5-min Rain = 0
KTA1 071946Z 02014KT 02/02 A304 RMK A01 T00240020  RH  097%=      5-min Rain = 0
KTA1 071947Z 02013KT 02/02 A3039 RMK A01 T00240020  RH  097%=      5-min Rain = 0
KTA1 071948Z 01013KT 02/02 A3039 RMK A01 T00240020  RH  097%=      5-min Rain = 0
KTA1 071949Z 01012KT 02/02 A3039 RMK A01 T00240020  RH  097%=      5-min Rain = 0
KTA1 071950Z 02013KT 02/02 A3039 RMK A01 T00240020  RH  097%=      5-min Rain = 0
KTA1 071951Z 02011KT 03/02 A3039 RMK A01 T00250021  RH  097%=      5-min Rain = 0
KTA1 071952Z 02015KT 03/02 A3039 RMK A01 T00250021  RH  097%=      5-min Rain = 0
KTA1 071953Z 02013KT 03/02 A3039 RMK A01 T00250020  RH  097%=      5-min Rain = 0
KTA1 071954Z 02012KT 02/02 A304 RMK A01 T00240020  RH  097%=      5-min Rain = 0
KTA1 071955Z 01011KT 02/02 A304 RMK A01 T00240020  RH  097%=      5-min Rain = 0
KTA1 071956Z 02013KT 02/02 A304 RMK A01 T00240020  RH  097%=      5-min Rain = 0
KTA1 071957Z 01013KT 02/02 A304 RMK A01 T00240020  RH  097%=      5-min Rain = 0
KTA1 071958Z 01012KT 03/02 A304 RMK A01 T00250021  RH  097%=      5-min Rain = 0
KTA1 071959Z 02012KT 03/02 A304 RMK A01 T00250021  RH  098%=      5-min Rain = 0
KTA1 072000Z 02013KT 03/02 A304 RMK A01 T00250022  RH  098%=      5-min Rain = 0
KTA1 072001Z 01014KT 03/02 A304 RMK A01 T00250022  RH  098%=      5-min Rain = 0
KTA1 072002Z 01012KT 03/02 A304 RMK A01 T00250022  RH  098%=      5-min Rain = 0
KTA1 072003Z 01012KT 03/02 A304 RMK A01 T00250022  RH  098%=      5-min Rain = 0
KTA1 072004Z 01014KT 03/02 A304 RMK A01 T00260023  RH  098%=      5-min Rain = 0
KTA1 072005Z 01014KT 03/02 A3039 RMK A01 T00260023  RH  098%=      5-min Rain = 0
KTA1 072006Z 01012KT 03/02 A3039 RMK A01 T00250022  RH  098%=      5-min Rain = 0
KTA1 072007Z 01014KT 03/02 A3039 RMK A01 T00250021  RH  098%=      5-min Rain = 0
KTA1 072008Z 02014KT 03/02 A3039 RMK A01 T00250021  RH  097%=      5-min Rain = 0
KTA1 072009Z 01013KT 03/02 A3039 RMK A01 T00250021  RH  097%=      5-min Rain = 0
KTA1 072010Z 01012KT 03/02 A3039 RMK A01 T00250021  RH  097%=      5-min Rain = 0
KTA1 072011Z 01013KT 03/02 A3039 RMK A01 T00250021  RH  097%=      5-min Rain = 0
KTA1 072012Z 01011KT 03/02 A3039 RMK A01 T00250020  RH  097%=      5-min Rain = 0
KTA1 072013Z 01011KT 03/02 A3039 RMK A01 T00250020  RH  097%=      5-min Rain = 0
KTA1 072014Z 01011KT 03/02 A3039 RMK A01 T00260021  RH  097%=      5-min Rain = 0
KTA1 072015Z 01012KT 03/02 A3039 RMK A01 T00260022  RH  097%=      5-min Rain = 0
KTA1 072016Z 01011KT 03/02 A3039 RMK A01 T00260022  RH  097%=      5-min Rain = 0
KTA1 072017Z 01014KT 03/02 A3039 RMK A01 T00260021  RH  097%=      5-min Rain = 0
KTA1 072018Z 01012KT 03/02 A3039 RMK A01 T00250021  RH  097%=      5-min Rain = 0
KTA1 072019Z 01014KT 03/02 A3039 RMK A01 T00250020  RH  097%=      5-min Rain = 0
KTA1 072020Z 01012KT 03/02 A3039 RMK A01 T00250020  RH  096%=      5-min Rain = 0
KTA1 072021Z 01014KT 03/02 A3039 RMK A01 T00260021  RH  097%=      5-min Rain = 0
KTA1 072022Z 01012KT 03/02 A3039 RMK A01 T00260021  RH  096%=      5-min Rain = 0
KTA1 072023Z 02014KT 03/02 A3039 RMK A01 T00260020  RH  096%=      5-min Rain = 0
KTA1 072024Z 01012KT 03/02 A3039 RMK A01 T00260020  RH  096%=      5-min Rain = 0
KTA1 072025Z 00013KT 03/02 A3039 RMK A01 T00260020  RH  096%=      5-min Rain = 0
KTA1 072026Z 01015KT 03/02 A304 RMK A01 T00260020  RH  096%=      5-min Rain = 0
KTA1 072027Z 02012KT 03/02 A304 RMK A01 T00260020  RH  096%=      5-min Rain = 0
KTA1 072028Z 02011KT 03/02 A304 RMK A01 T00260020  RH  096%=      5-min Rain = 0
KTA1 072029Z 02013KT 03/02 A3039 RMK A01 T00260021  RH  097%=      5-min Rain = 0
KTA1 072030Z 02014KT 03/02 A3039 RMK A01 T00260021  RH  096%=      5-min Rain = 0
KTA1 072031Z 02011KT 03/02 A3039 RMK A01 T00250020  RH  096%=      5-min Rain = 0
KTA1 072032Z 02010KT 03/02 A3039 RMK A01 T00250020  RH  096%=      5-min Rain = 0
KTA1 072033Z 02012KT 03/02 A3039 RMK A01 T00250020  RH  096%=      5-min Rain = 0
KTA1 072034Z 02013KT 03/02 A3039 RMK A01 T00260020  RH  096%=      5-min Rain = 0
KTA1 072035Z 02012KT 03/02 A3039 RMK A01 T00260020  RH  096%=      5-min Rain = 0
KTA1 072036Z 01012KT 03/02 A3039 RMK A01 T00270021  RH  097%=      5-min Rain = 0
KTA1 072037Z 01013KT 03/02 A3039 RMK A01 T00270023  RH  097%=      5-min Rain = 0
KTA1 072038Z 01012KT 03/02 A3039 RMK A01 T00270022  RH  097%=      5-min Rain = 0
KTA1 072039Z 01015KT 03/02 A3039 RMK A01 T00270021  RH  096%=      5-min Rain = 0
KTA1 072040Z 01013KT 03/02 A3039 RMK A01 T00260020  RH  096%=      5-min Rain = 0
KTA1 072041Z 02014KT 03/02 A3039 RMK A01 T00260020  RH  096%=      5-min Rain = 0
KTA1 072042Z 01010KT 03/02 A3039 RMK A01 T00260020  RH  096%=      5-min Rain = 0
KTA1 072043Z 01012KT 03/02 A3039 RMK A01 T00260021  RH  096%=      5-min Rain = 0
KTA1 072044Z 01012KT 03/02 A3039 RMK A01 T00260021  RH  097%=      5-min Rain = 0
KTA1 072045Z 01012KT 03/02 A3039 RMK A01 T00260021  RH  097%=      5-min Rain = 0
KTA1 072046Z 01013KT 03/02 A3039 RMK A01 T00260021  RH  097%=      5-min Rain = 0
KTA1 072047Z 01012KT 03/02 A3039 RMK A01 T00260021  RH  097%=      5-min Rain = 0
KTA1 072048Z 02011KT 03/02 A3039 RMK A01 T00260021  RH  097%=      5-min Rain = 0
KTA1 072049Z 02013KT 03/02 A3039 RMK A01 T00260022  RH  097%=      5-min Rain = 0
KTA1 072050Z 02010KT 03/02 A3039 RMK A01 T00260022  RH  097%=      5-min Rain = 0
KTA1 072051Z 01010KT 03/02 A3039 RMK A01 T00260022  RH  097%=      5-min Rain = 0
KTA1 072052Z 01014KT 03/02 A3039 RMK A01 T00270022  RH  097%=      5-min Rain = 0
KTA1 072053Z 01012KT 03/02 A3039 RMK A01 T00260022  RH  097%=      5-min Rain = 0
KTA1 072054Z 36011KT 03/02 A3039 RMK A01 T00260021  RH  097%=      5-min Rain = 0
KTA1 072055Z 01011KT 03/02 A3039 RMK A01 T00260021  RH  097%=      5-min Rain = 0
KTA1 072056Z 00011G16KT 03/02 A3039 RMK A01 T00260022  RH  097%=      5-min Rain = 0
KTA1 072057Z 00013KT 03/02 A3039 RMK A01 T00260022  RH  097%=      5-min Rain = 0
KTA1 072058Z 36012KT 03/02 A3039 RMK A01 T00250021  RH  097%=      5-min Rain = 0
KTA1 072059Z 01012KT 03/02 A3039 RMK A01 T00250021  RH  097%=      5-min Rain = 0
KTA1 072100Z 01013KT 03/02 A3039 RMK A01 T00250021  RH  097%=      5-min Rain = 0
KTA1 072101Z 01011KT 03/02 A304 RMK A01 T00250021  RH  097%=      5-min Rain = 0
KTA1 072102Z 00012KT 03/02 A304 RMK A01 T00250021  RH  097%=      5-min Rain = 0
KTA1 072103Z 00013KT 03/02 A304 RMK A01 T00260022  RH  097%=      5-min Rain = 0
KTA1 072104Z 01010KT 03/02 A304 RMK A01 T00260022  RH  097%=      5-min Rain = 0
KTA1 072105Z 01011KT 03/02 A304 RMK A01 T00270023  RH  098%=      5-min Rain = 0
KTA1 072106Z 02012KT 03/02 A304 RMK A01 T00270023  RH  098%=      5-min Rain = 0
KTA1 072107Z 01011KT 03/02 A304 RMK A01 T00260023  RH  097%=      5-min Rain = 0
KTA1 072108Z 01015KT 03/02 A304 RMK A01 T00260022  RH  097%=      5-min Rain = 0
KTA1 072109Z 01013KT 03/02 A304 RMK A01 T00250021  RH  097%=      5-min Rain = 0
KTA1 072110Z 01011KT 03/02 A304 RMK A01 T00250020  RH  097%=      5-min Rain = 0
KTA1 072111Z 02012KT 03/02 A304 RMK A01 T00260021  RH  097%=      5-min Rain = 0
KTA1 072112Z 01013KT 03/02 A304 RMK A01 T00260021  RH  097%=      5-min Rain = 0
KTA1 072113Z 01011KT 03/02 A304 RMK A01 T00250020  RH  097%=      5-min Rain = 0
KTA1 072114Z 02010KT 03/02 A304 RMK A01 T00260021  RH  097%=      5-min Rain = 0
KTA1 072115Z 02013KT 03/02 A304 RMK A01 T00270022  RH  097%=      5-min Rain = 0
KTA1 072116Z 03013KT 03/02 A304 RMK A01 T00260021  RH  097%=      5-min Rain = 0
KTA1 072117Z 02010KT 03/02 A304 RMK A01 T00250020  RH  097%=      5-min Rain = 0
KTA1 072118Z 01011KT 03/02 A304 RMK A01 T00260022  RH  097%=      5-min Rain = 0
KTA1 072119Z 02012KT 03/02 A304 RMK A01 T00260022  RH  097%=      5-min Rain = 0
KTA1 072120Z 02012KT 03/02 A304 RMK A01 T00260021  RH  097%=      5-min Rain = 0
KTA1 072121Z 02011KT 03/02 A304 RMK A01 T00250020  RH  097%=      5-min Rain = 0
KTA1 072122Z 02012KT 03/02 A304 RMK A01 T00250020  RH  096%=      5-min Rain = 0
KTA1 072123Z 02014KT 03/02 A304 RMK A01 T00250020  RH  097%=      5-min Rain = 0
KTA1 072124Z 03013KT 03/02 A304 RMK A01 T00250021  RH  097%=      5-min Rain = 0
KTA1 072125Z 02011KT 03/02 A304 RMK A01 T00250020  RH  097%=      5-min Rain = 0
KTA1 072126Z 01011KT 03/02 A304 RMK A01 T00260021  RH  097%=      5-min Rain = 0
KTA1 072127Z 01013KT 03/02 A3041 RMK A01 T00260021  RH  097%=      5-min Rain = 0
KTA1 072128Z 01012KT 03/02 A304 RMK A01 T00260020  RH  096%=      5-min Rain = 0
KTA1 072129Z 02013KT 03/02 A304 RMK A01 T00260021  RH  096%=      5-min Rain = 0
KTA1 072130Z 01012KT 03/02 A304 RMK A01 T00260020  RH  096%=      5-min Rain = 0
KTA1 072131Z 02010KT 03/02 A304 RMK A01 T00260021  RH  096%=      5-min Rain = 0
KTA1 072132Z 02011KT 03/02 A304 RMK A01 T00270022  RH  097%=      5-min Rain = 0
KTA1 072133Z 02012KT 03/02 A304 RMK A01 T00270022  RH  096%=      5-min Rain = 0
KTA1 072134Z 02012KT 03/02 A304 RMK A01 T00270021  RH  096%=      5-min Rain = 0
KTA1 072135Z 02012KT 03/02 A3041 RMK A01 T00270021  RH  096%=      5-min Rain = 0
KTA1 072136Z 01010KT 03/02 A3041 RMK A01 T00270021  RH  096%=      5-min Rain = 0
KTA1 072137Z 01009G14KT 03/02 A3041 RMK A01 T00270021  RH  096%=      5-min Rain = 0
KTA1 072138Z 01011KT 03/02 A3041 RMK A01 T00280022  RH  096%=      5-min Rain = 0
KTA1 072139Z 01011KT 03/02 A3041 RMK A01 T00270021  RH  096%=      5-min Rain = 0
KTA1 072140Z 02012KT 03/02 A3041 RMK A01 T00270020  RH  096%=      5-min Rain = 0
KTA1 072141Z 01012KT 03/02 A3041 RMK A01 T00270020  RH  096%=      5-min Rain = 0
KTA1 072142Z 01010KT 03/02 A3041 RMK A01 T00270020  RH  096%=      5-min Rain = 0
KTA1 072143Z 01009KT 03/02 A3042 RMK A01 T00260020  RH  096%=      5-min Rain = 0
KTA1 072144Z 01009KT 03/02 A3042 RMK A01 T00260020  RH  096%=      5-min Rain = 0
KTA1 072145Z 00008KT 03/02 A3042 RMK A01 T00270021  RH  096%=      5-min Rain = 0
KTA1 072146Z 01007KT 03/02 A3042 RMK A01 T00270022  RH  096%=      5-min Rain = 0
KTA1 072147Z 02008KT 03/02 A3042 RMK A01 T00270022  RH  096%=      5-min Rain = 0
KTA1 072148Z 02007KT 03/02 A3042 RMK A01 T00280022  RH  096%=      5-min Rain = 0
KTA1 072149Z 01009KT 03/02 A3042 RMK A01 T00280023  RH  096%=      5-min Rain = 0
KTA1 072150Z 01010KT 03/02 A3042 RMK A01 T00280023  RH  097%=      5-min Rain = 0
KTA1 072151Z 00009KT 03/02 A3042 RMK A01 T00290024  RH  097%=      5-min Rain = 0
KTA1 072152Z 36009KT 03/03 A3042 RMK A01 T00290025  RH  097%=      5-min Rain = 0
KTA1 072153Z 35013KT 03/03 A3041 RMK A01 T00290025  RH  097%=      5-min Rain = 0
KTA1 072154Z 35012KT 03/02 A3041 RMK A01 T00280023  RH  096%=      5-min Rain = 0
KTA1 072155Z 36012KT 03/02 A3041 RMK A01 T00270022  RH  096%=      5-min Rain = 0
KTA1 072156Z 00012KT 03/02 A3041 RMK A01 T00270022  RH  096%=      5-min Rain = 0
KTA1 072157Z 36012KT 03/02 A3041 RMK A01 T00270022  RH  096%=      5-min Rain = 0
KTA1 072158Z 36011KT 03/02 A3041 RMK A01 T00270022  RH  096%=      5-min Rain = 0
KTA1 072159Z 00009KT 03/02 A3041 RMK A01 T00260021  RH  096%=      5-min Rain = 0
KTA1 072200Z 01009KT 03/02 A3041 RMK A01 T00260022  RH  097%=      5-min Rain = 0
KTA1 072201Z 01009KT 03/02 A3041 RMK A01 T00270023  RH  097%=      5-min Rain = 0
KTA1 072202Z 00010KT 03/02 A3041 RMK A01 T00280024  RH  097%=      5-min Rain = 0
KTA1 072203Z 01010KT 03/02 A3041 RMK A01 T00280024  RH  097%=      5-min Rain = 0
KTA1 072204Z 01011KT 03/02 A304 RMK A01 T00280023  RH  097%=      5-min Rain = 0
KTA1 072205Z 01013KT 03/02 A304 RMK A01 T00270022  RH  097%=      5-min Rain = 0
KTA1 072206Z 01011KT 03/02 A3041 RMK A01 T00270022  RH  096%=      5-min Rain = 0
KTA1 072207Z 01011KT 03/02 A3041 RMK A01 T00270021  RH  096%=      5-min Rain = 0
KTA1 072208Z 01012KT 03/02 A3041 RMK A01 T00280021  RH  096%=      5-min Rain = 0
KTA1 072209Z 01015KT 03/02 A3041 RMK A01 T00280020  RH  095%=      5-min Rain = 0
KTA1 072210Z 01012KT 03/02 A3041 RMK A01 T00270020  RH  095%=      5-min Rain = 0
KTA1 072211Z 01011KT 03/02 A3041 RMK A01 T00270019  RH  095%=      5-min Rain = 0
KTA1 072212Z 01010KT 03/02 A3041 RMK A01 T00270020  RH  095%=      5-min Rain = 0
KTA1 072213Z 00011KT 03/02 A3041 RMK A01 T00270020  RH  095%=      5-min Rain = 0
KTA1 072214Z 01012KT 03/02 A3041 RMK A01 T00280020  RH  095%=      5-min Rain = 0
KTA1 072215Z 01011KT 03/02 A3041 RMK A01 T00280020  RH  095%=      5-min Rain = 0
KTA1 072216Z 01013KT 03/02 A3041 RMK A01 T00280020  RH  095%=      5-min Rain = 0
KTA1 072217Z 00010KT 03/02 A3041 RMK A01 T00280020  RH  095%=      5-min Rain = 0
KTA1 072218Z 01008KT 03/02 A3041 RMK A01 T00280020  RH  095%=      5-min Rain = 0
KTA1 072219Z 00010KT 03/02 A3041 RMK A01 T00280021  RH  095%=      5-min Rain = 0
KTA1 072220Z 36011KT 03/02 A3041 RMK A01 T00290022  RH  095%=      5-min Rain = 0
KTA1 072221Z 01009KT 03/02 A3041 RMK A01 T00290022  RH  095%=      5-min Rain = 0
KTA1 072222Z 01011KT 03/02 A3041 RMK A01 T00280022  RH  095%=      5-min Rain = 0
KTA1 072223Z 01009KT 03/02 A3041 RMK A01 T00280022  RH  096%=      5-min Rain = 0
KTA1 072224Z 01009KT 03/02 A3042 RMK A01 T00290023  RH  096%=      5-min Rain = 0
KTA1 072225Z 01010KT 03/02 A3042 RMK A01 T00290023  RH  096%=      5-min Rain = 0
KTA1 072226Z 01009KT 03/02 A3042 RMK A01 T00280023  RH  096%=      5-min Rain = 0
KTA1 072227Z 00008KT 03/02 A3042 RMK A01 T00280023  RH  096%=      5-min Rain = 0
KTA1 072228Z 36008KT 03/02 A3042 RMK A01 T00280023  RH  097%=      5-min Rain = 0
KTA1 072229Z 00008KT 03/02 A3042 RMK A01 T00280023  RH  097%=      5-min Rain = 0
KTA1 072230Z 01007KT 03/02 A3042 RMK A01 T00280023  RH  097%=      5-min Rain = 0
KTA1 072231Z 01008KT 03/02 A3041 RMK A01 T00280024  RH  097%=      5-min Rain = 0
KTA1 072232Z 01008KT 03/02 A3041 RMK A01 T00280024  RH  097%=      5-min Rain = 0
KTA1 072233Z 01010KT 03/02 A3041 RMK A01 T00280024  RH  097%=      5-min Rain = 0
KTA1 072234Z 01009KT 03/02 A3041 RMK A01 T00280024  RH  097%=      5-min Rain = 0
KTA1 072235Z 01012KT 03/02 A3041 RMK A01 T00280024  RH  097%=      5-min Rain = 0
KTA1 072236Z 01010KT 03/02 A3041 RMK A01 T00280024  RH  097%=      5-min Rain = 0
KTA1 072237Z 01008KT 03/02 A3041 RMK A01 T00280024  RH  097%=      5-min Rain = 0
KTA1 072238Z 01010KT 03/03 A3041 RMK A01 T00290025  RH  097%=      5-min Rain = 0
KTA1 072239Z 01010KT 03/03 A3042 RMK A01 T00290025  RH  097%=      5-min Rain = 0
KTA1 072240Z 02010KT 03/03 A3042 RMK A01 T00290025  RH  097%=      5-min Rain = 0
KTA1 072241Z 01010KT 03/03 A3042 RMK A01 T00290025  RH  097%=      5-min Rain = 0
KTA1 072242Z 02009KT 03/03 A3042 RMK A01 T00290025  RH  097%=      5-min Rain = 0
KTA1 072243Z 01009KT 03/02 A3042 RMK A01 T00290024  RH  097%=      5-min Rain = 0
KTA1 072244Z 01007KT 03/03 A3042 RMK A01 T00290025  RH  097%=      5-min Rain = 0
KTA1 072245Z 00009KT 03/03 A3042 RMK A01 T00290025  RH  098%=      5-min Rain = 0
KTA1 072246Z 00011KT 03/03 A3042 RMK A01 T00290025  RH  097%=      5-min Rain = 0
KTA1 072247Z 36009KT 03/03 A3042 RMK A01 T00290025  RH  097%=      5-min Rain = 0
KTA1 072248Z 35009KT 03/03 A3042 RMK A01 T00290025  RH  097%=      5-min Rain = 0
KTA1 072249Z 00009KT 03/03 A3042 RMK A01 T00290025  RH  097%=      5-min Rain = 0
KTA1 072250Z 01010KT 03/03 A3042 RMK A01 T00290026  RH  098%=      5-min Rain = 0
KTA1 072251Z 01011KT 03/03 A3042 RMK A01 T00290025  RH  098%=      5-min Rain = 0
KTA1 072252Z 01012KT 03/03 A3042 RMK A01 T00290025  RH  097%=      5-min Rain = 0
KTA1 072253Z 02010KT 03/03 A3042 RMK A01 T00280025  RH  097%=      5-min Rain = 0
KTA1 072254Z 01012KT 03/03 A3042 RMK A01 T00280025  RH  097%=      5-min Rain = 0
KTA1 072255Z 01011KT 03/02 A3042 RMK A01 T00280024  RH  097%=      5-min Rain = 0
KTA1 072256Z 01011KT 03/02 A3042 RMK A01 T00280024  RH  097%=      5-min Rain = 0
KTA1 072257Z 36010KT 03/02 A3042 RMK A01 T00280024  RH  097%=      5-min Rain = 0
KTA1 072258Z 36011KT 03/02 A3042 RMK A01 T00280024  RH  097%=      5-min Rain = 0
KTA1 072259Z 00010KT 03/02 A3042 RMK A01 T00280024  RH  097%=      5-min Rain = 0
KTA1 072300Z 36011KT 03/02 A3042 RMK A01 T00280024  RH  097%=      5-min Rain = 0
KTA1 072301Z 01012KT 03/02 A3042 RMK A01 T00280024  RH  097%=      5-min Rain = 0
KTA1 072302Z 00012KT 03/02 A3042 RMK A01 T00280024  RH  097%=      5-min Rain = 0
KTA1 072303Z 01013KT 03/02 A3042 RMK A01 T00270024  RH  097%=      5-min Rain = 0
KTA1 072304Z 00013KT 03/02 A3042 RMK A01 T00270023  RH  097%=      5-min Rain = 0
KTA1 072305Z 01010KT 03/02 A3042 RMK A01 T00270023  RH  097%=      5-min Rain = 0
KTA1 072306Z 01012KT 03/02 A3042 RMK A01 T00270023  RH  097%=      5-min Rain = 0
KTA1 072307Z 01011KT 03/02 A3042 RMK A01 T00270023  RH  097%=      5-min Rain = 0
KTA1 072308Z 01011KT 03/02 A3042 RMK A01 T00270023  RH  097%=      5-min Rain = 0
KTA1 072309Z 01011KT 03/02 A3042 RMK A01 T00270023  RH  097%=      5-min Rain = 0
KTA1 072310Z 01009KT 03/02 A3042 RMK A01 T00270023  RH  097%=      5-min Rain = 0
KTA1 072311Z 00011KT 03/02 A3042 RMK A01 T00270023  RH  097%=      5-min Rain = 0
KTA1 072312Z 00012KT 03/02 A3042 RMK A01 T00270023  RH  097%=      5-min Rain = 0
KTA1 072313Z 00012KT 03/02 A3042 RMK A01 T00270023  RH  097%=      5-min Rain = 0
KTA1 072314Z 00013KT 03/02 A3042 RMK A01 T00270023  RH  097%=      5-min Rain = 0
KTA1 072315Z 00012KT 03/02 A3042 RMK A01 T00270023  RH  097%=      5-min Rain = 0
KTA1 072316Z 00008KT 03/02 A3042 RMK A01 T00270023  RH  098%=      5-min Rain = 0
KTA1 072317Z 01013KT 03/02 A3042 RMK A01 T00270024  RH  098%=      5-min Rain = 0
KTA1 072318Z 01014KT 03/02 A3042 RMK A01 T00270024  RH  098%=      5-min Rain = 0
KTA1 072319Z 01010KT 03/02 A3042 RMK A01 T00260023  RH  097%=      5-min Rain = 0
KTA1 072320Z 00012KT 03/02 A3042 RMK A01 T00270023  RH  098%=      5-min Rain = 0
KTA1 072321Z 00009KT 03/02 A3042 RMK A01 T00270023  RH  098%=      5-min Rain = 0
KTA1 072322Z 00011KT 03/02 A3042 RMK A01 T00270023  RH  097%=      5-min Rain = 0
KTA1 072323Z 01010KT 03/02 A3042 RMK A01 T00270023  RH  097%=      5-min Rain = 0
KTA1 072324Z 00008KT 03/02 A3042 RMK A01 T00270023  RH  097%=      5-min Rain = 0
KTA1 072325Z 01009KT 03/02 A3042 RMK A01 T00270023  RH  098%=      5-min Rain = 0
KTA1 072326Z 01011KT 03/02 A3042 RMK A01 T00270024  RH  098%=      5-min Rain = 0
KTA1 072327Z 01010KT 03/02 A3042 RMK A01 T00270023  RH  098%=      5-min Rain = 0
KTA1 072328Z 01009KT 03/02 A3043 RMK A01 T00270023  RH  098%=      5-min Rain = 0
KTA1 072329Z 01011KT 03/02 A3043 RMK A01 T00270023  RH  098%=      5-min Rain = 0
KTA1 072330Z 01010KT 03/02 A3042 RMK A01 T00270023  RH  098%=      5-min Rain = 0
KTA1 072331Z 01009KT 03/02 A3042 RMK A01 T00260023  RH  098%=      5-min Rain = 0
KTA1 072332Z 01010KT 03/02 A3042 RMK A01 T00260023  RH  098%=      5-min Rain = 0
KTA1 072333Z 01009KT 03/02 A3042 RMK A01 T00270023  RH  098%=      5-min Rain = 0
KTA1 072334Z 01010KT 03/02 A3042 RMK A01 T00270024  RH  098%=      5-min Rain = 0
KTA1 072335Z 01010KT 03/02 A3042 RMK A01 T00270024  RH  098%=      5-min Rain = 0
KTA1 072336Z 00008KT 03/02 A3042 RMK A01 T00270024  RH  098%=      5-min Rain = 0
KTA1 072337Z 00010KT 03/02 A3042 RMK A01 T00270024  RH  098%=      5-min Rain = 0
KTA1 072338Z 01012KT 03/02 A3042 RMK A01 T00270024  RH  098%=      5-min Rain = 0
KTA1 072339Z 00012KT 03/02 A3042 RMK A01 T00270024  RH  098%=      5-min Rain = 0
KTA1 072340Z 00011KT 03/02 A3042 RMK A01 T00270024  RH  098%=      5-min Rain = 0
KTA1 072341Z 01009KT 03/02 A3042 RMK A01 T00270024  RH  098%=      5-min Rain = 0
KTA1 072342Z 00010KT 03/02 A3042 RMK A01 T00270024  RH  098%=      5-min Rain = 0
KTA1 072343Z 36011KT 03/03 A3042 RMK A01 T00280026  RH  098%=      5-min Rain = 0
KTA1 072344Z 35014KT 03/03 A3042 RMK A01 T00280025  RH  098%=      5-min Rain = 0
KTA1 072345Z 35012KT 03/02 A3042 RMK A01 T00270023  RH  098%=      5-min Rain = 0
KTA1 072346Z 36011KT 03/02 A3043 RMK A01 T00260023  RH  098%=      5-min Rain = 0
KTA1 072347Z 35010KT 03/02 A3042 RMK A01 T00260024  RH  098%=      5-min Rain = 0
KTA1 072348Z 36012KT 03/02 A3042 RMK A01 T00260023  RH  098%=      5-min Rain = 0
KTA1 072349Z 36013KT 03/02 A3042 RMK A01 T00260024  RH  098%=      5-min Rain = 0
KTA1 072350Z 36013KT 03/02 A3042 RMK A01 T00260023  RH  098%=      5-min Rain = 0
KTA1 072351Z 36010KT 03/02 A3043 RMK A01 T00250022  RH  098%=      5-min Rain = 0
KTA1 072352Z 35011KT 03/02 A3043 RMK A01 T00260023  RH  098%=      5-min Rain = 0
KTA1 072353Z 36011KT 03/02 A3043 RMK A01 T00260023  RH  098%=      5-min Rain = 0
KTA1 072354Z 36012KT 03/02 A3043 RMK A01 T00260023  RH  098%=      5-min Rain = 0
KTA1 072355Z 35012KT 03/02 A3043 RMK A01 T00260023  RH  098%=      5-min Rain = 0
KTA1 072356Z 36011KT 03/02 A3043 RMK A01 T00250022  RH  098%=      5-min Rain = 0
KTA1 072357Z 36011KT 03/02 A3043 RMK A01 T00250022  RH  098%=      5-min Rain = 0
KTA1 072358Z 00011KT 03/02 A3043 RMK A01 T00250022  RH  098%=      5-min Rain = 0
KTA1 072359Z 36010KT 03/02 A3043 RMK A01 T00250022  RH  098%=      5-min Rain = 0
KTA1 080000Z 35010KT 03/02 A3043 RMK A01 T00250022  RH  098%=      5-min Rain = 0
KTA1 080001Z 36012KT 03/02 A3043 RMK A01 T00250022  RH  098%=      5-min Rain = 0
KTA1 080002Z 00012KT 03/02 A3043 RMK A01 T00250022  RH  098%=      5-min Rain = 0
KTA1 080003Z 00010KT 03/02 A3043 RMK A01 T00250022  RH  098%=      5-min Rain = 0
KTA1 080004Z 00010KT 03/02 A3043 RMK A01 T00250022  RH  098%=      5-min Rain = 0
KTA1 080005Z 36010KT 03/02 A3043 RMK A01 T00250022  RH  098%=      5-min Rain = 0
KTA1 080006Z 01011KT 03/02 A3043 RMK A01 T00250022  RH  098%=      5-min Rain = 0
KTA1 080007Z 00011KT 03/02 A3042 RMK A01 T00250022  RH  098%=      5-min Rain = 0
KTA1 080008Z 01011KT 03/02 A3042 RMK A01 T00250022  RH  098%=      5-min Rain = 0
KTA1 080009Z 01010KT 03/02 A3042 RMK A01 T00250022  RH  098%=      5-min Rain = 0
KTA1 080010Z 00010KT 03/02 A3043 RMK A01 T00250022  RH  098%=      5-min Rain = 0
KTA1 080011Z 01010G15KT 03/02 A3043 RMK A01 T00250022  RH  098%=      5-min Rain = 0
KTA1 080012Z 00014KT 03/02 A3043 RMK A01 T00250022  RH  098%=      5-min Rain = 0
KTA1 080013Z 00012KT 02/02 A3043 RMK A01 T00240020  RH  097%=      5-min Rain = 0
KTA1 080014Z 01012KT 02/02 A3043 RMK A01 T00240020  RH  097%=      5-min Rain = 0
KTA1 080015Z 01010KT 02/02 A3042 RMK A01 T00240020  RH  097%=      5-min Rain = 0
KTA1 080016Z 00013KT 02/02 A3042 RMK A01 T00240020  RH  097%=      5-min Rain = 0
KTA1 080017Z 01011KT 02/02 A3042 RMK A01 T00240020  RH  097%=      5-min Rain = 0
KTA1 080018Z 01012KT 02/02 A3043 RMK A01 T00240020  RH  097%=      5-min Rain = 0
KTA1 080019Z 01012KT 02/02 A3043 RMK A01 T00240020  RH  097%=      5-min Rain = 0
KTA1 080020Z 01011KT 02/02 A3043 RMK A01 T00240020  RH  097%=      5-min Rain = 0
KTA1 080021Z 00012KT 02/02 A3042 RMK A01 T00240020  RH  097%=      5-min Rain = 0
KTA1 080022Z 01013KT 02/02 A3042 RMK A01 T00240020  RH  097%=      5-min Rain = 0
KTA1 080023Z 01012KT 02/02 A3042 RMK A01 T00230019  RH  097%=      5-min Rain = 0
KTA1 080024Z 01013KT 02/02 A3042 RMK A01 T00230019  RH  097%=      5-min Rain = 0
KTA1 080025Z 01013KT 02/02 A3042 RMK A01 T00240020  RH  097%=      5-min Rain = 0
KTA1 080026Z 01013KT 02/02 A3042 RMK A01 T00240020  RH  097%=      5-min Rain = 0
KTA1 080027Z 00012KT 02/02 A3043 RMK A01 T00230020  RH  097%=      5-min Rain = 0
KTA1 080028Z 36011KT 02/02 A3043 RMK A01 T00230020  RH  097%=      5-min Rain = 0
KTA1 080029Z 36013KT 02/02 A3043 RMK A01 T00240020  RH  097%=      5-min Rain = 0
KTA1 080030Z 00011KT 02/02 A3043 RMK A01 T00230020  RH  097%=      5-min Rain = 0
KTA1 080031Z 00013KT 02/02 A3043 RMK A01 T00230020  RH  097%=      5-min Rain = 0
KTA1 080032Z 01012KT 02/02 A3043 RMK A01 T00230019  RH  097%=      5-min Rain = 0
KTA1 080033Z 00011KT 02/02 A3043 RMK A01 T00230020  RH  098%=      5-min Rain = 0
KTA1 080034Z 00011KT 02/02 A3043 RMK A01 T00230020  RH  098%=      5-min Rain = 0
KTA1 080035Z 00011KT 02/02 A3043 RMK A01 T00240020  RH  098%=      5-min Rain = 0
KTA1 080036Z 36009KT 02/02 A3043 RMK A01 T00240020  RH  098%=      5-min Rain = 0
KTA1 080037Z 01010KT 02/02 A3043 RMK A01 T00240020  RH  098%=      5-min Rain = 0
KTA1 080038Z 01012KT 02/02 A3043 RMK A01 T00230020  RH  098%=      5-min Rain = 0
KTA1 080039Z 01013KT 02/02 A3043 RMK A01 T00230020  RH  098%=      5-min Rain = 0
KTA1 080040Z 01010KT 02/02 A3043 RMK A01 T00230019  RH  097%=      5-min Rain = 0
KTA1 080041Z 00011KT 02/02 A3043 RMK A01 T00230019  RH  097%=      5-min Rain = 0
KTA1 080042Z 00013KT 02/02 A3043 RMK A01 T00230019  RH  097%=      5-min Rain = 0
KTA1 080043Z 36012KT 02/02 A3043 RMK A01 T00230019  RH  097%=      5-min Rain = 0
KTA1 080044Z 36012KT 02/02 A3043 RMK A01 T00230019  RH  097%=      5-min Rain = 0
KTA1 080045Z 36012KT 02/02 A3043 RMK A01 T00230019  RH  097%=      5-min Rain = 0
KTA1 080046Z 00013KT 02/02 A3043 RMK A01 T00230019  RH  097%=      5-min Rain = 0
KTA1 080047Z 36014KT 02/02 A3043 RMK A01 T00230019  RH  097%=      5-min Rain = 0
KTA1 080048Z 36012KT 02/02 A3043 RMK A01 T00230019  RH  097%=      5-min Rain = 0
KTA1 080049Z 00011KT 02/02 A3043 RMK A01 T00230019  RH  097%=      5-min Rain = 0
KTA1 080050Z 36013KT 02/02 A3043 RMK A01 T00230019  RH  097%=      5-min Rain = 0
KTA1 080051Z 36011KT 02/02 A3043 RMK A01 T00230018  RH  097%=      5-min Rain = 0
KTA1 080052Z 36012KT 02/02 A3044 RMK A01 T00230018  RH  097%=      5-min Rain = 0
KTA1 080053Z 00011KT 02/02 A3044 RMK A01 T00230018  RH  097%=      5-min Rain = 0
KTA1 080054Z 00010KT 02/02 A3044 RMK A01 T00230018  RH  097%=      5-min Rain = 0
KTA1 080055Z 01012KT 02/02 A3044 RMK A01 T00230019  RH  097%=      5-min Rain = 0
KTA1 080056Z 01012KT 02/02 A3044 RMK A01 T00230019  RH  097%=      5-min Rain = 0
KTA1 080057Z 01013KT 02/02 A3043 RMK A01 T00230018  RH  097%=      5-min Rain = 0
KTA1 080058Z 01012KT 02/02 A3043 RMK A01 T00230018  RH  097%=      5-min Rain = 0
KTA1 080059Z 01011KT 02/02 A3043 RMK A01 T00230018  RH  097%=      5-min Rain = 0
KTA1 080100Z 00010KT 02/02 A3043 RMK A01 T00230018  RH  097%=      5-min Rain = 0
KTA1 080101Z 00010KT 02/02 A3043 RMK A01 T00240019  RH  097%=      5-min Rain = 0
KTA1 080102Z 00011KT 02/02 A3043 RMK A01 T00240019  RH  097%=      5-min Rain = 0
KTA1 080103Z 01011KT 02/02 A3044 RMK A01 T00230019  RH  097%=      5-min Rain = 0
KTA1 080104Z 00010KT 02/02 A3044 RMK A01 T00230018  RH  097%=      5-min Rain = 0
KTA1 080105Z 00011KT 02/02 A3044 RMK A01 T00230018  RH  097%=      5-min Rain = 0
KTA1 080106Z 01010KT 02/02 A3044 RMK A01 T00230018  RH  097%=      5-min Rain = 0
KTA1 080107Z 00008KT 02/02 A3044 RMK A01 T00230018  RH  097%=      5-min Rain = 0
KTA1 080108Z 00011KT 02/02 A3044 RMK A01 T00230019  RH  097%=      5-min Rain = 0
KTA1 080109Z 00010KT 02/02 A3043 RMK A01 T00230019  RH  097%=      5-min Rain = 0
KTA1 080110Z 00011KT 02/02 A3043 RMK A01 T00230019  RH  097%=      5-min Rain = 0
KTA1 080111Z 36012KT 02/02 A3043 RMK A01 T00240019  RH  097%=      5-min Rain = 0
KTA1 080112Z 00012KT 02/02 A3043 RMK A01 T00230019  RH  097%=      5-min Rain = 0
KTA1 080113Z 00012KT 02/02 A3043 RMK A01 T00230018  RH  097%=      5-min Rain = 0
KTA1 080114Z 00011KT 02/02 A3043 RMK A01 T00230018  RH  097%=      5-min Rain = 0
KTA1 080115Z 00010KT 02/02 A3043 RMK A01 T00230018  RH  097%=      5-min Rain = 0
KTA1 080116Z 35010KT 02/02 A3043 RMK A01 T00230018  RH  097%=      5-min Rain = 0
KTA1 080117Z 35010KT 02/02 A3044 RMK A01 T00230018  RH  097%=      5-min Rain = 0
KTA1 080118Z 00009KT 02/02 A3044 RMK A01 T00230018  RH  096%=      5-min Rain = 0
KTA1 080119Z 00009KT 02/02 A3044 RMK A01 T00230018  RH  096%=      5-min Rain = 0
KTA1 080120Z 00012KT 02/02 A3044 RMK A01 T00230018  RH  096%=      5-min Rain = 0
KTA1 080121Z 00010KT 02/02 A3044 RMK A01 T00240018  RH  096%=      5-min Rain = 0
KTA1 080122Z 00009KT 02/02 A3044 RMK A01 T00240018  RH  096%=      5-min Rain = 0
KTA1 080123Z 01012KT 02/02 A3044 RMK A01 T00240017  RH  096%=      5-min Rain = 0
KTA1 080124Z 00012KT 02/02 A3044 RMK A01 T00240017  RH  095%=      5-min Rain = 0
KTA1 080125Z 00012KT 02/02 A3044 RMK A01 T00230016  RH  095%=      5-min Rain = 0
KTA1 080126Z 00012KT 02/02 A3044 RMK A01 T00230015  RH  094%=      5-min Rain = 0
KTA1 080127Z 01012KT 02/02 A3044 RMK A01 T00230015  RH  094%=      5-min Rain = 0
KTA1 080128Z 01011KT 02/02 A3044 RMK A01 T00230015  RH  094%=      5-min Rain = 0
KTA1 080129Z 01010KT 02/01 A3044 RMK A01 T00230014  RH  094%=      5-min Rain = 0
KTA1 080130Z 00009KT 02/02 A3044 RMK A01 T00230015  RH  094%=      5-min Rain = 0
KTA1 080131Z 01009KT 02/02 A3044 RMK A01 T00240016  RH  095%=      5-min Rain = 0
KTA1 080132Z 36009KT 02/02 A3044 RMK A01 T00240016  RH  095%=      5-min Rain = 0
KTA1 080133Z 35009KT 02/02 A3044 RMK A01 T00240017  RH  095%=      5-min Rain = 0
KTA1 080134Z 36008KT 02/02 A3044 RMK A01 T00240017  RH  095%=      5-min Rain = 0
KTA1 080135Z 36010KT 02/02 A3044 RMK A01 T00240018  RH  095%=      5-min Rain = 0
KTA1 080136Z 36010KT 02/02 A3044 RMK A01 T00240018  RH  095%=      5-min Rain = 0
KTA1 080137Z 00011KT 02/02 A3044 RMK A01 T00240018  RH  095%=      5-min Rain = 0
KTA1 080138Z 35009KT 02/02 A3044 RMK A01 T00240017  RH  095%=      5-min Rain = 0
KTA1 080139Z 36009KT 02/02 A3044 RMK A01 T00240017  RH  095%=      5-min Rain = 0
KTA1 080140Z 36009KT 02/02 A3044 RMK A01 T00240017  RH  095%=      5-min Rain = 0
KTA1 080141Z 35011KT 02/02 A3044 RMK A01 T00240017  RH  095%=      5-min Rain = 0
KTA1 080142Z 36008KT 02/02 A3044 RMK A01 T00240017  RH  095%=      5-min Rain = 0
KTA1 080143Z 36008KT 02/02 A3044 RMK A01 T00240018  RH  095%=      5-min Rain = 0
KTA1 080144Z 00009KT 02/02 A3044 RMK A01 T00240018  RH  096%=      5-min Rain = 0
KTA1 080145Z 01010KT 02/02 A3044 RMK A01 T00240018  RH  096%=      5-min Rain = 0
KTA1 080146Z 00011KT 02/02 A3044 RMK A01 T00240017  RH  095%=      5-min Rain = 0
KTA1 080147Z 00010KT 02/02 A3044 RMK A01 T00240017  RH  095%=      5-min Rain = 0
KTA1 080148Z 00012KT 02/02 A3044 RMK A01 T00240017  RH  095%=      5-min Rain = 0
KTA1 080149Z 01010KT 02/02 A3044 RMK A01 T00230016  RH  095%=      5-min Rain = 0
KTA1 080150Z 00010KT 02/02 A3044 RMK A01 T00230015  RH  095%=      5-min Rain = 0
KTA1 080151Z 01011KT 02/02 A3044 RMK A01 T00230015  RH  095%=      5-min Rain = 0
KTA1 080152Z 01011KT 02/02 A3044 RMK A01 T00230015  RH  095%=      5-min Rain = 0
KTA1 080153Z 01011KT 02/02 A3044 RMK A01 T00230015  RH  094%=      5-min Rain = 0
KTA1 080154Z 01011KT 02/02 A3044 RMK A01 T00230015  RH  094%=      5-min Rain = 0
KTA1 080155Z 01010KT 02/01 A3044 RMK A01 T00230014  RH  094%=      5-min Rain = 0
KTA1 080156Z 00009KT 02/02 A3044 RMK A01 T00230015  RH  094%=      5-min Rain = 0
KTA1 080157Z 01009KT 02/02 A3044 RMK A01 T00230015  RH  095%=      5-min Rain = 0
KTA1 080158Z 00011KT 02/02 A3044 RMK A01 T00230015  RH  095%=      5-min Rain = 0
KTA1 080159Z 01011KT 02/02 A3044 RMK A01 T00230015  RH  095%=      5-min Rain = 0
KTA1 080200Z 00010KT 02/02 A3044 RMK A01 T00230015  RH  095%=      5-min Rain = 0
KTA1 080201Z 00010KT 02/02 A3044 RMK A01 T00230015  RH  095%=      5-min Rain = 0
KTA1 080202Z 36008KT 02/02 A3045 RMK A01 T00230015  RH  095%=      5-min Rain = 0
KTA1 080203Z 00010KT 02/02 A3045 RMK A01 T00240016  RH  095%=      5-min Rain = 0
KTA1 080204Z 01009KT 02/02 A3045 RMK A01 T00230016  RH  095%=      5-min Rain = 0
KTA1 080205Z 01010KT 02/02 A3045 RMK A01 T00240017  RH  095%=      5-min Rain = 0
KTA1 080206Z 01011KT 02/02 A3045 RMK A01 T00240017  RH  095%=      5-min Rain = 0
KTA1 080207Z 01011KT 02/02 A3045 RMK A01 T00240017  RH  095%=      5-min Rain = 0
KTA1 080208Z 01011KT 02/02 A3045 RMK A01 T00240016  RH  095%=      5-min Rain = 0
KTA1 080209Z 01009KT 02/02 A3045 RMK A01 T00230016  RH  095%=      5-min Rain = 0
KTA1 080210Z 00010KT 02/02 A3045 RMK A01 T00240016  RH  095%=      5-min Rain = 0
KTA1 080211Z 01010KT 02/02 A3045 RMK A01 T00240017  RH  095%=      5-min Rain = 0
KTA1 080212Z 01010KT 02/02 A3045 RMK A01 T00240016  RH  095%=      5-min Rain = 0
KTA1 080213Z 01010KT 02/02 A3045 RMK A01 T00230016  RH  095%=      5-min Rain = 0
KTA1 080214Z 00010KT 02/02 A3045 RMK A01 T00240017  RH  095%=      5-min Rain = 0
KTA1 080215Z 00011KT 02/02 A3045 RMK A01 T00240017  RH  095%=      5-min Rain = 0
KTA1 080216Z 35008KT 02/02 A3045 RMK A01 T00230017  RH  095%=      5-min Rain = 0
KTA1 080217Z 00010KT 02/02 A3045 RMK A01 T00240018  RH  096%=      5-min Rain = 0
KTA1 080218Z 00011KT 02/02 A3045 RMK A01 T00240018  RH  096%=      5-min Rain = 0
KTA1 080219Z 01011KT 02/02 A3045 RMK A01 T00240018  RH  096%=      5-min Rain = 0
KTA1 080220Z 01009KT 02/02 A3045 RMK A01 T00240018  RH  096%=      5-min Rain = 0
KTA1 080221Z 01007KT 03/02 A3045 RMK A01 T00250019  RH  096%=      5-min Rain = 0
KTA1 080222Z 01010KT 03/02 A3045 RMK A01 T00250019  RH  096%=      5-min Rain = 0
KTA1 080223Z 01008KT 03/02 A3045 RMK A01 T00250019  RH  096%=      5-min Rain = 0
KTA1 080224Z 00008KT 03/02 A3045 RMK A01 T00250019  RH  096%=      5-min Rain = 0
KTA1 080225Z 01011KT 03/02 A3045 RMK A01 T00250019  RH  096%=      5-min Rain = 0
KTA1 080226Z 01009KT 03/02 A3045 RMK A01 T00250019  RH  096%=      5-min Rain = 0
KTA1 080227Z 00011KT 03/02 A3045 RMK A01 T00250019  RH  096%=      5-min Rain = 0
KTA1 080228Z 01009KT 03/02 A3045 RMK A01 T00250018  RH  096%=      5-min Rain = 0
KTA1 080229Z 36009KT 03/02 A3045 RMK A01 T00250018  RH  096%=      5-min Rain = 0
KTA1 080230Z 35009KT 03/02 A3045 RMK A01 T00250019  RH  096%=      5-min Rain = 0
KTA1 080231Z 36010KT 03/02 A3045 RMK A01 T00250019  RH  096%=      5-min Rain = 0
KTA1 080232Z 36010KT 03/02 A3045 RMK A01 T00250019  RH  096%=      5-min Rain = 0
KTA1 080233Z 00011KT 03/02 A3045 RMK A01 T00250018  RH  096%=      5-min Rain = 0
KTA1 080234Z 00011KT 03/02 A3046 RMK A01 T00250019  RH  096%=      5-min Rain = 0
KTA1 080235Z 00011KT 03/02 A3046 RMK A01 T00250019  RH  096%=      5-min Rain = 0
KTA1 080236Z 00012KT 03/02 A3046 RMK A01 T00250019  RH  096%=      5-min Rain = 0
KTA1 080237Z 00009KT 03/02 A3046 RMK A01 T00250019  RH  096%=      5-min Rain = 0
KTA1 080238Z 01008KT 03/02 A3046 RMK A01 T00250019  RH  096%=      5-min Rain = 0
KTA1 080239Z 01008KT 03/02 A3045 RMK A01 T00250020  RH  096%=      5-min Rain = 0
KTA1 080240Z 01011KT 03/02 A3045 RMK A01 T00250020  RH  096%=      5-min Rain = 0
KTA1 080241Z 01009KT 03/02 A3045 RMK A01 T00250019  RH  096%=      5-min Rain = 0
KTA1 080242Z 01010KT 03/02 A3045 RMK A01 T00250020  RH  096%=      5-min Rain = 0
KTA1 080243Z 01009KT 03/02 A3045 RMK A01 T00250019  RH  096%=      5-min Rain = 0
KTA1 080244Z 01009KT 03/02 A3046 RMK A01 T00250019  RH  096%=      5-min Rain = 0
KTA1 080245Z 01009KT 03/02 A3046 RMK A01 T00250019  RH  096%=      5-min Rain = 0
KTA1 080246Z 00008KT 03/02 A3046 RMK A01 T00250019  RH  096%=      5-min Rain = 0
KTA1 080247Z 00010KT 03/02 A3046 RMK A01 T00250020  RH  096%=      5-min Rain = 0
KTA1 080248Z 00009KT 03/02 A3046 RMK A01 T00250020  RH  096%=      5-min Rain = 0
KTA1 080249Z 00010KT 03/02 A3045 RMK A01 T00250020  RH  096%=      5-min Rain = 0
KTA1 080250Z 00009KT 03/02 A3045 RMK A01 T00250020  RH  096%=      5-min Rain = 0
KTA1 080251Z 00009KT 03/02 A3045 RMK A01 T00250020  RH  096%=      5-min Rain = 0
KTA1 080252Z 00011KT 03/02 A3045 RMK A01 T00250020  RH  096%=      5-min Rain = 0
KTA1 080253Z 00010KT 03/02 A3045 RMK A01 T00250020  RH  096%=      5-min Rain = 0
KTA1 080254Z 01010KT 03/02 A3045 RMK A01 T00250020  RH  096%=      5-min Rain = 0
KTA1 080255Z 00010KT 03/02 A3045 RMK A01 T00250020  RH  097%=      5-min Rain = 0
KTA1 080256Z 00010KT 03/02 A3045 RMK A01 T00250020  RH  097%=      5-min Rain = 0
KTA1 080257Z 00009KT 03/02 A3045 RMK A01 T00250020  RH  097%=      5-min Rain = 0
KTA1 080258Z 00008KT 03/02 A3045 RMK A01 T00250021  RH  097%=      5-min Rain = 0
KTA1 080259Z 36009KT 03/02 A3045 RMK A01 T00250021  RH  097%=      5-min Rain = 0
KTA1 080300Z 35010KT 03/02 A3045 RMK A01 T00250021  RH  097%=      5-min Rain = 0
KTA1 080301Z 35009KT 03/02 A3045 RMK A01 T00250020  RH  097%=      5-min Rain = 0
KTA1 080302Z 36010KT 03/02 A3045 RMK A01 T00250020  RH  097%=      5-min Rain = 0
KTA1 080303Z 35012KT 02/02 A3046 RMK A01 T00240020  RH  097%=      5-min Rain = 0
KTA1 080304Z 35008KT 03/02 A3046 RMK A01 T00250020  RH  097%=      5-min Rain = 0
KTA1 080305Z 35010KT 03/02 A3046 RMK A01 T00250020  RH  097%=      5-min Rain = 0
KTA1 080306Z 36011KT 02/02 A3046 RMK A01 T00240020  RH  097%=      5-min Rain = 0
KTA1 080307Z 00011KT 02/02 A3046 RMK A01 T00240019  RH  097%=      5-min Rain = 0
KTA1 080308Z 36011KT 02/02 A3046 RMK A01 T00240019  RH  097%=      5-min Rain = 0
KTA1 080309Z 36010KT 02/02 A3046 RMK A01 T00240019  RH  097%=      5-min Rain = 0
KTA1 080310Z 36010KT 02/02 A3046 RMK A01 T00240019  RH  097%=      5-min Rain = 0
KTA1 080311Z 35010KT 02/02 A3046 RMK A01 T00240019  RH  096%=      5-min Rain = 0
KTA1 080312Z 36008KT 02/02 A3046 RMK A01 T00240019  RH  096%=      5-min Rain = 0
KTA1 080313Z 36008KT 02/02 A3046 RMK A01 T00240019  RH  097%=      5-min Rain = 0
KTA1 080314Z 36010KT 03/02 A3046 RMK A01 T00250020  RH  097%=      5-min Rain = 0
KTA1 080315Z 36010KT 02/02 A3046 RMK A01 T00240020  RH  097%=      5-min Rain = 0
KTA1 080316Z 36009KT 02/02 A3045 RMK A01 T00240020  RH  097%=      5-min Rain = 0
KTA1 080317Z 36008KT 02/02 A3045 RMK A01 T00240020  RH  097%=      5-min Rain = 0
KTA1 080318Z 00009KT 03/02 A3045 RMK A01 T00250020  RH  097%=      5-min Rain = 0
KTA1 080319Z 00008KT 03/02 A3045 RMK A01 T00250020  RH  097%=      5-min Rain = 0
KTA1 080320Z 01008KT 02/02 A3045 RMK A01 T00240020  RH  097%=      5-min Rain = 0
KTA1 080321Z 00010KT 03/02 A3045 RMK A01 T00250021  RH  097%=      5-min Rain = 0
KTA1 080322Z 36009KT 02/02 A3046 RMK A01 T00240020  RH  097%=      5-min Rain = 0
KTA1 080323Z 36010KT 03/02 A3046 RMK A01 T00250020  RH  097%=      5-min Rain = 0
KTA1 080324Z 36010KT 02/02 A3046 RMK A01 T00240020  RH  097%=      5-min Rain = 0
KTA1 080325Z 36009KT 02/02 A3046 RMK A01 T00240020  RH  097%=      5-min Rain = 0
KTA1 080326Z 35007KT 03/02 A3046 RMK A01 T00250021  RH  097%=      5-min Rain = 0
KTA1 080327Z 00007KT 02/02 A3046 RMK A01 T00240020  RH  097%=      5-min Rain = 0
KTA1 080328Z 36011KT 03/02 A3046 RMK A01 T00250021  RH  097%=      5-min Rain = 0
KTA1 080329Z 00010KT 03/02 A3046 RMK A01 T00250020  RH  097%=      5-min Rain = 0
KTA1 080330Z 00009KT 02/02 A3046 RMK A01 T00240020  RH  097%=      5-min Rain = 0
KTA1 080331Z 36008KT 02/02 A3046 RMK A01 T00240020  RH  097%=      5-min Rain = 0
KTA1 080332Z 35008KT 03/02 A3046 RMK A01 T00250020  RH  097%=      5-min Rain = 0
KTA1 080333Z 35008KT 02/02 A3046 RMK A01 T00240020  RH  097%=      5-min Rain = 0
KTA1 080334Z 35008KT 03/02 A3046 RMK A01 T00250021  RH  097%=      5-min Rain = 0
KTA1 080335Z 36009KT 03/02 A3046 RMK A01 T00250021  RH  097%=      5-min Rain = 0
KTA1 080336Z 35008KT 03/02 A3046 RMK A01 T00250021  RH  097%=      5-min Rain = 0
KTA1 080337Z 36007KT 03/02 A3046 RMK A01 T00250021  RH  097%=      5-min Rain = 0
KTA1 080338Z 36008KT 03/02 A3047 RMK A01 T00250021  RH  097%=      5-min Rain = 0
KTA1 080339Z 36006KT 03/02 A3047 RMK A01 T00250021  RH  097%=      5-min Rain = 0
KTA1 080340Z 35007KT 03/02 A3047 RMK A01 T00250022  RH  098%=      5-min Rain = 0
KTA1 080341Z 36007KT 03/02 A3047 RMK A01 T00250022  RH  098%=      5-min Rain = 0
KTA1 080342Z 36007KT 03/02 A3047 RMK A01 T00250022  RH  098%=      5-min Rain = 0
KTA1 080343Z 01008KT 03/02 A3046 RMK A01 T00260023  RH  098%=      5-min Rain = 0
KTA1 080344Z 00008KT 03/02 A3046 RMK A01 T00260022  RH  098%=      5-min Rain = 0
KTA1 080345Z 01007KT 03/02 A3046 RMK A01 T00250022  RH  098%=      5-min Rain = 0
KTA1 080346Z 01008KT 03/02 A3046 RMK A01 T00250022  RH  098%=      5-min Rain = 0
KTA1 080347Z 01007KT 03/02 A3046 RMK A01 T00250022  RH  098%=      5-min Rain = 0
KTA1 080348Z 36007KT 03/02 A3047 RMK A01 T00260023  RH  098%=      5-min Rain = 0
KTA1 080349Z 00008KT 03/02 A3047 RMK A01 T00260023  RH  098%=      5-min Rain = 0
KTA1 080350Z 00009KT 03/02 A3047 RMK A01 T00260022  RH  098%=      5-min Rain = 0
KTA1 080351Z 00007KT 03/02 A3047 RMK A01 T00250022  RH  098%=      5-min Rain = 0
KTA1 080352Z 00007KT 03/02 A3047 RMK A01 T00250022  RH  098%=      5-min Rain = 0
KTA1 080353Z 35008KT 03/02 A3046 RMK A01 T00260023  RH  098%=      5-min Rain = 0
KTA1 080354Z 36008KT 03/02 A3046 RMK A01 T00260022  RH  098%=      5-min Rain = 0
KTA1 080355Z 35008KT 03/02 A3046 RMK A01 T00260022  RH  098%=      5-min Rain = 0
KTA1 080356Z 00008KT 03/02 A3046 RMK A01 T00260023  RH  098%=      5-min Rain = 0
KTA1 080357Z 36007KT 03/02 A3046 RMK A01 T00260022  RH  098%=      5-min Rain = 0
KTA1 080358Z 00006KT 03/02 A3046 RMK A01 T00250022  RH  098%=      5-min Rain = 0
KTA1 080359Z 00005KT 03/02 A3046 RMK A01 T00260023  RH  098%=      5-min Rain = 0
KTA1 080400Z 36006KT 03/02 A3046 RMK A01 T00260023  RH  098%=      5-min Rain = 0
KTA1 080401Z 35009KT 03/02 A3046 RMK A01 T00260023  RH  098%=      5-min Rain = 0
KTA1 080402Z 36007KT 03/02 A3046 RMK A01 T00260023  RH  098%=      5-min Rain = 0
KTA1 080403Z 01006KT 03/02 A3046 RMK A01 T00260023  RH  098%=      5-min Rain = 0
KTA1 080404Z 00007KT 03/02 A3046 RMK A01 T00260023  RH  098%=      5-min Rain = 0
KTA1 080405Z 36007KT 03/02 A3046 RMK A01 T00270024  RH  098%=      5-min Rain = 0
KTA1 080406Z 36007KT 03/02 A3046 RMK A01 T00260023  RH  098%=      5-min Rain = 0
KTA1 080407Z 35008KT 03/02 A3046 RMK A01 T00260023  RH  098%=      5-min Rain = 0
KTA1 080408Z 00008KT 03/02 A3046 RMK A01 T00260023  RH  098%=      5-min Rain = 0
KTA1 080409Z 36009KT 03/02 A3046 RMK A01 T00260023  RH  098%=      5-min Rain = 0
KTA1 080410Z 36008KT 03/02 A3046 RMK A01 T00260022  RH  098%=      5-min Rain = 0
KTA1 080411Z 00009KT 03/02 A3046 RMK A01 T00260023  RH  098%=      5-min Rain = 0
KTA1 080412Z 00008KT 03/02 A3046 RMK A01 T00260022  RH  098%=      5-min Rain = 0
KTA1 080413Z 00009KT 03/02 A3046 RMK A01 T00260023  RH  098%=      5-min Rain = 0
KTA1 080414Z 35009KT 03/02 A3046 RMK A01 T00260023  RH  098%=      5-min Rain = 0
KTA1 080415Z 36008KT 03/02 A3046 RMK A01 T00260023  RH  098%=      5-min Rain = 0
KTA1 080416Z 01007KT 03/02 A3046 RMK A01 T00260023  RH  098%=      5-min Rain = 0
KTA1 080417Z 01009KT 03/02 A3046 RMK A01 T00260023  RH  098%=      5-min Rain = 0
KTA1 080418Z 01007KT 03/02 A3046 RMK A01 T00270024  RH  098%=      5-min Rain = 0
KTA1 080419Z 01007KT 03/02 A3046 RMK A01 T00270024  RH  098%=      5-min Rain = 0
KTA1 080420Z 01007KT 03/02 A3046 RMK A01 T00270024  RH  098%=      5-min Rain = 0
KTA1 080421Z 01006KT 03/02 A3046 RMK A01 T00270024  RH  098%=      5-min Rain = 0
KTA1 080422Z 01006KT 03/02 A3046 RMK A01 T00270024  RH  098%=      5-min Rain = 0
KTA1 080423Z 02005KT 03/02 A3046 RMK A01 T00270024  RH  098%=      5-min Rain = 0
KTA1 080424Z 01006KT 03/02 A3046 RMK A01 T00270024  RH  098%=      5-min Rain = 0
KTA1 080425Z 01007KT 03/02 A3046 RMK A01 T00270024  RH  098%=      5-min Rain = 0
KTA1 080426Z 01008KT 03/02 A3046 RMK A01 T00270024  RH  098%=      5-min Rain = 0
KTA1 080427Z 01007KT 03/02 A3046 RMK A01 T00270024  RH  098%=      5-min Rain = 0
KTA1 080428Z 01007KT 03/02 A3046 RMK A01 T00270024  RH  098%=      5-min Rain = 0
KTA1 080429Z 00008KT 03/02 A3046 RMK A01 T00270024  RH  098%=      5-min Rain = 0
KTA1 080430Z 00006KT 03/02 A3046 RMK A01 T00270024  RH  098%=      5-min Rain = 0
KTA1 080431Z 00007KT 03/02 A3046 RMK A01 T00270024  RH  098%=      5-min Rain = 0
KTA1 080432Z 00007KT 03/02 A3046 RMK A01 T00270024  RH  098%=      5-min Rain = 0
KTA1 080433Z 00006KT 03/03 A3046 RMK A01 T00270025  RH  098%=      5-min Rain = 0
KTA1 080434Z 01006KT 03/02 A3046 RMK A01 T00270024  RH  098%=      5-min Rain = 0
KTA1 080435Z 01006KT 03/03 A3046 RMK A01 T00270025  RH  098%=      5-min Rain = 0
KTA1 080436Z 01006KT 03/03 A3046 RMK A01 T00270025  RH  098%=      5-min Rain = 0
KTA1 080437Z 01007KT 03/03 A3046 RMK A01 T00270025  RH  098%=      5-min Rain = 0
KTA1 080438Z 36009KT 03/03 A3046 RMK A01 T00280025  RH  098%=      5-min Rain = 0
KTA1 080439Z 36008KT 03/03 A3046 RMK A01 T00280025  RH  098%=      5-min Rain = 0
KTA1 080440Z 00007KT 03/03 A3045 RMK A01 T00270025  RH  098%=      5-min Rain = 0
KTA1 080441Z 36007KT 03/03 A3046 RMK A01 T00270025  RH  098%=      5-min Rain = 0
KTA1 080442Z 00007KT 03/03 A3046 RMK A01 T00270025  RH  098%=      5-min Rain = 0
KTA1 080443Z 00005G10KT 03/03 A3046 RMK A01 T00270025  RH  098%=      5-min Rain = 0
KTA1 080444Z 35008KT 03/03 A3046 RMK A01 T00270025  RH  098%=      5-min Rain = 0
KTA1 080445Z 36008KT 03/03 A3046 RMK A01 T00270025  RH  098%=      5-min Rain = 0
KTA1 080446Z 00006KT 03/03 A3046 RMK A01 T00270025  RH  098%=      5-min Rain = 0
KTA1 080447Z 36007KT 03/03 A3046 RMK A01 T00280025  RH  099%=      5-min Rain = 0
KTA1 080448Z 36006KT 03/03 A3046 RMK A01 T00280026  RH  099%=      5-min Rain = 0
KTA1 080449Z 36007KT 03/03 A3046 RMK A01 T00280026  RH  099%=      5-min Rain = 0
KTA1 080450Z 36006KT 03/03 A3046 RMK A01 T00280026  RH  099%=      5-min Rain = 0
KTA1 080451Z 36006KT 03/03 A3046 RMK A01 T00280026  RH  098%=      5-min Rain = 0
KTA1 080452Z 35005KT 03/03 A3047 RMK A01 T00280026  RH  098%=      5-min Rain = 0
KTA1 080453Z 35005KT 03/03 A3047 RMK A01 T00280026  RH  099%=      5-min Rain = 0
KTA1 080454Z 35006KT 03/03 A3047 RMK A01 T00280026  RH  099%=      5-min Rain = 0
KTA1 080455Z 35006KT 03/03 A3047 RMK A01 T00280026  RH  099%=      5-min Rain = 0
KTA1 080456Z 36008KT 03/03 A3046 RMK A01 T00280026  RH  098%=      5-min Rain = 0
KTA1 080457Z 00008KT 03/03 A3046 RMK A01 T00280026  RH  098%=      5-min Rain = 0
KTA1 080458Z 00007KT 03/03 A3046 RMK A01 T00280026  RH  098%=      5-min Rain = 0
KTA1 080459Z 00007KT 03/03 A3046 RMK A01 T00280025  RH  098%=      5-min Rain = 0
KTA1 080500Z 36008KT 03/03 A3046 RMK A01 T00280026  RH  098%=      5-min Rain = 0
KTA1 080501Z 36008KT 03/03 A3046 RMK A01 T00280025  RH  098%=      5-min Rain = 0
KTA1 080502Z 36006KT 03/03 A3046 RMK A01 T00280025  RH  098%=      5-min Rain = 0
KTA1 080503Z 36009KT 03/03 A3046 RMK A01 T00280026  RH  098%=      5-min Rain = 0
KTA1 080504Z 36007KT 03/03 A3046 RMK A01 T00280025  RH  098%=      5-min Rain = 0
KTA1 080505Z 00007KT 03/03 A3046 RMK A01 T00280025  RH  098%=      5-min Rain = 0
KTA1 080506Z 00006KT 03/03 A3046 RMK A01 T00280025  RH  098%=      5-min Rain = 0
KTA1 080507Z 36007KT 03/03 A3046 RMK A01 T00290026  RH  098%=      5-min Rain = 0
KTA1 080508Z 00007KT 03/03 A3046 RMK A01 T00280026  RH  098%=      5-min Rain = 0
KTA1 080509Z 00007KT 03/03 A3046 RMK A01 T00290026  RH  098%=      5-min Rain = 0
KTA1 080510Z 36006KT 03/03 A3046 RMK A01 T00280026  RH  098%=      5-min Rain = 0
KTA1 080511Z 36006KT 03/03 A3046 RMK A01 T00290026  RH  098%=      5-min Rain = 0
KTA1 080512Z 00006KT 03/03 A3046 RMK A01 T00290026  RH  098%=      5-min Rain = 0
KTA1 080513Z 01007KT 03/03 A3046 RMK A01 T00290026  RH  098%=      5-min Rain = 0
KTA1 080514Z 00007KT 03/03 A3046 RMK A01 T00290026  RH  098%=      5-min Rain = 0
KTA1 080515Z 36008KT 03/03 A3046 RMK A01 T00290026  RH  098%=      5-min Rain = 0
KTA1 080516Z 36008KT 03/03 A3046 RMK A01 T00290026  RH  098%=      5-min Rain = 0
KTA1 080517Z 00008KT 03/03 A3046 RMK A01 T00290026  RH  098%=      5-min Rain = 0
KTA1 080518Z 00008KT 03/03 A3046 RMK A01 T00290026  RH  098%=      5-min Rain = 0
KTA1 080519Z 01008KT 03/03 A3046 RMK A01 T00290026  RH  098%=      5-min Rain = 0
KTA1 080520Z 36006KT 03/03 A3046 RMK A01 T00290026  RH  098%=      5-min Rain = 0
KTA1 080521Z 35007KT 03/03 A3046 RMK A01 T00290026  RH  098%=      5-min Rain = 0
KTA1 080522Z 36008KT 03/03 A3046 RMK A01 T00290026  RH  098%=      5-min Rain = 0
KTA1 080523Z 35007KT 03/03 A3046 RMK A01 T00290026  RH  098%=      5-min Rain = 0
KTA1 080524Z 35006KT 03/03 A3046 RMK A01 T00290027  RH  098%=      5-min Rain = 0
KTA1 080525Z 35008KT 03/03 A3046 RMK A01 T00290027  RH  098%=      5-min Rain = 0
KTA1 080526Z 35008KT 03/03 A3046 RMK A01 T00300027  RH  098%=      5-min Rain = 0
KTA1 080527Z 35008KT 03/03 A3046 RMK A01 T00290026  RH  098%=      5-min Rain = 0
KTA1 080528Z 36008KT 03/03 A3045 RMK A01 T00290026  RH  098%=      5-min Rain = 0
KTA1 080529Z 35009KT 03/03 A3045 RMK A01 T00290026  RH  098%=      5-min Rain = 0
KTA1 080530Z 35009KT 03/03 A3045 RMK A01 T00290026  RH  098%=      5-min Rain = 0
KTA1 080531Z 35007KT 03/03 A3045 RMK A01 T00290026  RH  098%=      5-min Rain = 0
KTA1 080532Z 00008KT 03/03 A3045 RMK A01 T00280025  RH  098%=      5-min Rain = 0
KTA1 080533Z 36008KT 03/03 A3045 RMK A01 T00290026  RH  098%=      5-min Rain = 0
KTA1 080534Z 35007KT 03/03 A3046 RMK A01 T00290026  RH  098%=      5-min Rain = 0
KTA1 080535Z 36006KT 03/03 A3046 RMK A01 T00290026  RH  098%=      5-min Rain = 0
KTA1 080536Z 36005KT 03/03 A3046 RMK A01 T00290027  RH  098%=      5-min Rain = 0
KTA1 080537Z 36007KT 03/03 A3046 RMK A01 T00300027  RH  098%=      5-min Rain = 0
KTA1 080538Z 00009KT 03/03 A3046 RMK A01 T00300027  RH  098%=      5-min Rain = 0
KTA1 080539Z 35007KT 03/03 A3046 RMK A01 T00290026  RH  098%=      5-min Rain = 0
KTA1 080540Z 36007KT 03/03 A3046 RMK A01 T00290026  RH  098%=      5-min Rain = 0
KTA1 080541Z 35006KT 03/03 A3046 RMK A01 T00290026  RH  098%=      5-min Rain = 0
KTA1 080542Z 35006KT 03/03 A3046 RMK A01 T00290026  RH  098%=      5-min Rain = 0
KTA1 080543Z 35008KT 03/03 A3046 RMK A01 T00300027  RH  098%=      5-min Rain = 0
KTA1 080544Z 35008KT 03/03 A3046 RMK A01 T00290027  RH  098%=      5-min Rain = 0
KTA1 080545Z 35008KT 03/03 A3046 RMK A01 T00290026  RH  098%=      5-min Rain = 0
KTA1 080546Z 35008KT 03/03 A3046 RMK A01 T00300027  RH  098%=      5-min Rain = 0
KTA1 080547Z 35008KT 03/03 A3046 RMK A01 T00290026  RH  098%=      5-min Rain = 0
KTA1 080548Z 35008KT 03/03 A3046 RMK A01 T00300026  RH  098%=      5-min Rain = 0
KTA1 080549Z 35008KT 03/03 A3046 RMK A01 T00290026  RH  098%=      5-min Rain = 0
KTA1 080550Z 35007KT 03/03 A3046 RMK A01 T00290026  RH  098%=      5-min Rain = 0
KTA1 080551Z 35007KT 03/03 A3046 RMK A01 T00290026  RH  098%=      5-min Rain = 0
KTA1 080552Z 35007KT 03/03 A3046 RMK A01 T00300027  RH  098%=      5-min Rain = 0
KTA1 080553Z 35008KT 03/03 A3045 RMK A01 T00300027  RH  098%=      5-min Rain = 0
KTA1 080554Z 35008KT 03/03 A3045 RMK A01 T00290026  RH  098%=      5-min Rain = 0
KTA1 080555Z 36008KT 03/03 A3045 RMK A01 T00290026  RH  098%=      5-min Rain = 0
KTA1 080556Z 36008KT 03/03 A3045 RMK A01 T00290026  RH  098%=      5-min Rain = 0
KTA1 080557Z 36008KT 03/03 A3045 RMK A01 T00300026  RH  098%=      5-min Rain = 0
KTA1 080558Z 00008KT 03/03 A3045 RMK A01 T00290026  RH  098%=      5-min Rain = 0
KTA1 080559Z 00008KT 03/03 A3045 RMK A01 T00300026  RH  098%=      5-min Rain = 0

Page generated in 0.071 seconds.